GFSNE_850_thetae_000.txt.gz
Theta_e
326 326 326 325 325 325 325 323 321 321 320 320 319 319 319 318 318 318 318 316 315 313 309 306 304 302 300 298 296 294 292 289 293 294 294 295 295 295
325 327 327 326 326 326 326 325 324 323 321 320 320 320 319 319 319 319 317 315 314 309 306 303 301 298 296 293 289 289 290 292 292 293 294 295 294 294
323 325 327 327 326 326 326 326 325 324 323 322 321 321 320 320 319 319 316 314 310 306 302 300 297 295 290 289 289 289 290 290 291 291 292 292 292 292
321 323 326 327 327 327 327 326 325 325 324 323 322 321 321 320 319 317 314 312 306 303 301 297 293 290 289 288 287 287 287 288 289 290 290 290 291 291
321 322 322 325 326 327 327 326 325 324 323 322 321 321 321 321 317 314 312 307 303 301 298 292 290 289 287 287 286 286 286 285 286 288 290 289 290 290
319 321 322 324 324 326 327 326 325 324 324 323 324 322 321 320 316 312 309 304 301 298 293 290 289 288 287 286 286 286 285 285 287 289 289 289 289 289
320 319 321 322 324 325 327 326 325 325 324 324 323 322 320 318 316 311 305 301 298 294 290 289 288 287 287 286 286 286 285 285 288 288 288 288 288 288
322 320 320 321 322 325 327 327 324 324 324 323 322 321 321 317 314 306 303 299 292 292 289 288 287 287 287 286 286 286 286 286 287 287 287 287 287 287
317 323 322 322 322 322 326 326 323 324 322 323 322 322 320 316 308 303 300 295 290 289 288 288 287 287 287 286 286 286 286 285 285 285 285 285 285 285
319 319 322 322 322 322 324 326 322 321 322 321 323 320 315 309 303 301 297 290 289 288 287 287 288 287 287 286 286 285 284 283 283 282 282 283 284 284
318 315 318 322 320 321 324 324 323 322 322 323 321 318 311 304 301 299 293 289 288 287 287 286 287 287 286 286 285 284 283 283 283 283 284 284 284 284
315 317 318 319 321 322 324 325 325 324 323 322 319 314 306 302 300 294 292 289 288 286 287 285 286 285 285 285 285 284 284 283 284 285 284 285 285 285
314 315 317 319 321 321 323 326 326 324 321 317 311 310 304 300 295 293 290 288 287 286 286 284 284 284 283 284 284 284 284 284 284 284 285 285 285 285
314 318 317 318 320 321 321 325 323 322 319 313 308 303 301 297 293 292 288 287 286 285 285 284 283 283 283 282 283 284 283 283 284 284 285 284 285 285
312 313 317 319 320 321 318 323 323 320 318 310 306 301 296 294 293 289 288 287 286 285 284 284 283 283 282 282 281 283 282 283 284 284 283 283 284 284
312 313 315 317 318 318 313 315 318 317 313 310 303 298 292 296 291 288 287 286 285 284 284 283 283 283 282 282 281 282 282 282 284 283 283 283 284 284
311 311 312 313 312 307 307 311 312 312 307 304 300 297 294 296 289 288 286 285 284 284 284 283 283 282 283 282 282 283 283 283 283 283 283 284 285 284
311 309 310 310 310 310 310 309 308 309 304 302 298 293 298 292 290 287 285 284 284 284 283 283 282 283 283 284 284 283 282 283 283 283 284 284 287 286
308 309 308 309 309 309 311 309 309 304 302 300 296 295 295 293 288 286 285 284 284 284 283 282 282 282 281 282 282 283 284 285 284 286 285 285 286 289
306 306 305 306 306 307 309 306 306 301 298 296 294 296 297 290 287 286 284 284 284 283 283 282 282 281 281 280 280 286 285 286 286 286 287 286 287 289
300 301 302 303 302 301 299 300 300 298 297 296 294 298 296 287 286 285 284 284 284 283 282 282 282 281 281 281 283 285 288 287 286 286 286 285 286 287
298 299 299 299 299 299 298 298 298 298 296 294 298 299 290 287 286 285 285 284 283 283 283 282 282 282 282 283 284 286 287 289 288 288 288 287 286 283
298 297 298 298 298 297 297 298 299 297 295 298 299 295 287 286 285 285 285 284 283 283 282 282 282 283 283 284 286 286 287 288 289 291 290 289 288 286

GFSNE_850_thetae_003.txt.gz
Theta_e
324 321 322 325 326 325 325 324 323 322 322 321 321 320 320 319 319 318 318 319 318 319 315 314 313 309 306 303 300 298 294 291 291 292 295 295 296 296
326 325 323 321 324 326 325 325 324 324 323 322 322 321 320 320 320 319 319 319 318 318 316 315 312 307 304 301 297 292 291 290 291 293 294 294 295 295
328 327 326 323 324 325 325 325 324 324 323 323 323 322 321 321 320 320 319 319 319 316 315 315 309 305 302 296 292 291 289 288 291 292 292 293 293 293
327 328 326 324 324 324 324 324 325 324 323 323 323 322 322 322 321 320 320 319 317 316 315 313 305 303 296 292 290 289 288 288 287 289 290 291 292 292
326 326 326 327 326 324 324 324 325 324 323 323 322 321 321 322 321 320 319 319 317 314 314 307 303 298 292 291 289 288 287 287 286 286 289 290 291 291
324 323 326 326 326 325 324 323 324 324 323 322 320 321 321 321 320 320 318 317 314 311 307 303 298 293 291 290 289 288 287 287 286 287 290 290 290 290
320 322 324 323 326 325 324 324 322 322 322 322 319 319 320 319 320 320 318 314 310 307 302 298 293 292 290 289 289 288 288 287 286 288 289 289 289 289
314 318 322 320 324 325 324 324 323 322 321 321 320 321 319 319 318 318 317 310 304 303 299 294 291 289 289 288 288 287 287 286 286 288 288 288 288 287
312 312 318 321 323 323 323 324 323 324 322 322 321 320 319 317 318 318 316 312 304 300 295 292 290 289 289 289 288 287 287 286 285 287 287 286 286 286
312 312 315 320 323 323 322 322 322 322 323 322 321 320 318 318 318 318 315 305 299 295 292 290 289 289 288 288 287 287 286 285 284 283 284 284 285 285
314 313 312 317 317 318 321 322 323 322 321 320 320 320 319 319 316 313 306 301 294 292 292 289 288 288 288 287 286 287 286 285 284 284 285 285 285 286
312 313 314 313 316 317 318 320 321 321 321 319 318 316 318 313 308 306 299 297 293 289 292 289 287 287 287 286 286 286 285 284 284 285 285 285 285 286
306 309 313 312 313 316 317 318 317 319 320 318 316 316 314 313 300 300 298 295 291 291 291 288 287 286 285 285 285 285 285 284 284 284 285 285 286 285
303 305 308 312 312 313 316 318 319 319 317 313 308 308 308 305 302 295 294 290 290 291 290 287 286 285 284 284 284 285 284 284 284 284 284 285 285 285
304 305 306 309 311 312 315 315 316 317 316 312 313 306 304 301 294 300 297 288 289 289 287 287 286 285 284 284 283 284 283 284 284 285 284 284 285 284
304 305 306 309 310 311 313 311 312 313 312 312 308 309 299 297 295 296 290 289 288 287 286 286 285 285 284 283 282 283 283 282 284 285 285 285 285 285
302 304 307 308 307 310 309 308 307 305 308 308 312 302 297 297 298 292 291 289 287 286 286 285 285 284 283 283 283 284 284 283 284 285 284 284 286 285
302 305 306 305 304 308 306 305 303 302 304 304 304 302 298 300 298 290 290 286 286 285 285 285 284 283 283 285 285 285 284 284 285 285 285 284 286 286
299 300 300 301 301 303 303 300 298 298 300 299 298 298 300 299 291 291 287 286 285 285 284 284 283 282 282 282 283 284 284 286 286 286 285 284 285 288
298 297 298 298 299 299 299 297 296 296 293 296 295 298 300 298 293 288 286 285 285 285 284 283 283 282 281 281 281 287 285 286 286 285 286 285 287 288
296 296 296 297 297 297 297 296 295 295 294 294 294 298 299 294 290 287 286 285 285 284 283 283 282 282 282 282 284 287 288 287 285 283 283 283 285 289
294 294 295 296 296 295 296 296 295 295 295 296 297 297 294 291 288 286 285 285 285 284 283 283 283 284 284 283 284 287 287 289 288 288 288 287 286 284
293 293 295 295 295 294 294 293 293 294 296 298 296 295 292 290 286 285 286 285 284 284 283 283 284 284 283 285 286 287 288 288 288 290 291 288 287 287

GFSNE_850_thetae_006.txt.gz
Theta_e
330 329 329 329 328 327 326 325 323 322 322 322 322 322 322 321 321 320 319 319 318 318 318 318 318 317 314 314 309 305 302 298 293 291 291 295 296 297
329 329 329 329 329 328 326 325 324 323 323 322 322 322 322 322 321 320 320 319 319 319 318 318 318 316 313 313 306 304 299 294 292 291 290 295 295 295
327 327 327 328 327 326 326 325 324 323 323 322 323 323 323 322 322 320 320 319 319 319 319 318 317 314 313 310 305 301 294 292 291 290 289 293 294 294
320 323 323 324 325 326 326 326 325 322 321 323 323 322 322 323 322 321 320 319 318 319 319 319 317 315 313 307 303 296 293 292 291 289 288 289 292 292
317 317 318 320 323 324 324 325 325 323 322 322 322 323 322 322 321 321 320 318 317 317 319 319 317 314 312 304 298 293 292 291 289 288 287 287 290 292
314 314 314 314 316 320 324 325 324 324 323 323 322 322 322 321 321 320 319 318 317 315 316 317 315 312 305 301 295 292 291 290 288 288 287 289 291 290
313 313 313 313 313 314 320 322 323 324 323 323 322 321 321 320 320 320 319 318 317 313 313 315 312 307 301 297 292 291 290 289 288 287 288 290 290 290
311 312 312 313 313 312 316 317 321 321 323 320 322 320 320 319 318 319 319 313 312 312 311 312 308 302 296 294 291 290 289 288 287 287 287 289 289 289
308 309 310 313 313 313 313 314 317 319 321 323 322 321 320 320 317 318 318 316 316 314 312 308 300 295 293 292 290 290 289 288 287 286 285 288 288 288
305 307 308 309 311 312 312 313 316 317 318 320 320 320 319 319 319 319 318 315 313 308 304 299 296 294 292 290 289 289 288 287 287 285 285 284 286 287
303 304 304 305 308 308 310 312 312 315 317 316 318 317 320 319 320 317 317 313 309 306 298 294 293 292 290 289 289 288 287 287 286 286 285 286 286 286
293 294 300 303 306 307 306 309 311 312 316 317 318 317 317 317 314 317 318 312 304 299 298 295 292 291 288 288 288 287 287 286 286 285 285 286 286 286
291 293 296 301 304 307 307 308 311 311 312 316 317 315 315 313 314 307 306 309 307 302 297 295 293 289 288 288 287 286 286 286 285 284 284 284 285 286
290 292 297 301 304 305 307 308 310 312 312 314 315 315 309 308 305 303 303 300 300 296 293 293 290 288 287 287 286 286 285 284 284 284 284 285 285 285
289 292 297 301 304 306 307 308 310 311 312 312 311 306 305 303 301 300 299 295 293 295 292 289 288 287 286 286 286 286 285 285 285 285 285 285 285 285
290 293 299 300 302 302 303 306 308 309 310 309 305 302 302 299 302 297 295 295 295 294 290 288 287 286 286 285 284 286 284 284 285 284 284 285 285 285
293 295 296 298 299 301 300 302 304 304 302 301 300 299 299 297 298 296 296 294 296 291 287 287 286 286 285 284 285 286 286 285 284 285 285 285 286 287
292 294 294 296 296 297 298 299 300 299 298 298 297 297 297 295 294 296 295 295 289 287 286 286 285 285 285 285 285 286 285 285 285 285 285 286 288 289
290 291 293 294 295 295 296 296 296 297 297 296 295 294 294 294 292 295 294 289 287 286 286 285 284 284 283 284 284 284 284 286 286 286 286 287 287 289
289 290 292 293 294 294 295 294 295 295 295 295 293 293 294 295 292 294 291 287 286 285 285 285 284 282 282 282 283 288 285 286 285 285 287 287 287 289
287 290 290 292 293 294 294 293 293 294 293 293 292 294 295 294 293 291 287 286 285 285 285 284 282 283 283 283 284 286 289 288 287 286 286 285 286 287
287 288 290 291 292 293 293 292 291 292 292 292 293 294 294 294 292 287 286 286 286 285 284 282 283 284 284 285 287 287 289 290 288 288 288 287 286 285
287 288 289 290 291 292 292 291 290 290 290 291 291 293 294 293 287 286 285 286 285 284 283 283 285 285 286 286 287 288 288 289 289 290 291 289 289 288

GFSNE_850_thetae_009.txt.gz
Theta_e
325 327 328 327 327 327 327 327 326 325 323 322 322 322 322 321 321 321 322 321 321 319 318 318 317 317 317 317 317 317 314 313 306 303 297 292 293 297
316 317 320 323 325 326 326 326 326 326 324 323 323 323 323 322 321 321 322 322 321 320 319 318 317 317 317 317 317 316 313 310 304 299 293 292 294 297
314 315 315 316 318 320 321 322 325 325 325 324 323 323 323 323 321 320 321 321 321 320 319 319 318 317 317 317 316 315 312 306 301 294 291 291 293 296
313 314 314 314 314 314 316 318 323 323 323 323 323 323 323 323 322 322 320 320 321 320 318 317 318 316 314 314 314 313 310 303 295 292 291 290 289 292
310 311 312 313 313 313 313 313 314 317 321 323 323 323 322 321 321 321 320 320 320 320 320 316 317 315 314 311 310 311 305 298 293 291 291 290 289 289
308 309 309 310 310 311 312 313 314 315 318 319 321 322 322 322 321 320 321 320 319 320 317 316 315 316 313 309 306 305 300 294 291 290 290 289 288 288
306 305 304 305 306 308 311 313 314 314 316 318 318 319 319 320 318 318 320 320 320 320 316 316 314 314 311 305 304 306 294 292 291 290 290 288 288 290
299 297 299 302 305 307 308 310 312 313 313 315 315 317 317 319 318 319 318 313 315 317 313 314 314 309 308 303 304 293 292 292 290 290 289 287 288 291
294 295 296 299 297 299 303 305 308 309 312 312 313 315 316 317 319 317 315 316 312 318 312 308 311 309 303 301 300 292 292 290 290 289 288 287 288 290
291 292 292 292 294 295 300 302 304 306 307 309 312 312 313 317 318 318 317 313 314 315 307 308 308 304 301 299 295 291 290 289 289 288 288 286 287 287
294 294 291 290 291 293 297 300 302 304 306 308 310 311 311 315 316 317 315 313 310 310 305 306 303 302 299 300 292 290 289 289 288 289 287 286 286 287
295 293 291 289 290 293 297 299 300 303 305 306 308 311 311 312 314 316 317 314 306 305 306 301 300 296 294 295 292 289 288 287 287 287 286 287 288 287
293 292 289 289 290 297 298 300 302 302 304 304 307 309 311 311 311 314 314 312 308 306 305 302 299 300 295 289 288 287 287 287 286 286 286 285 285 285
291 291 289 289 292 296 298 300 301 302 303 305 306 309 310 309 307 309 307 306 303 304 304 301 302 298 294 288 287 287 286 286 285 285 284 284 285 285
290 289 291 292 295 296 296 297 298 301 302 304 305 305 304 303 303 301 300 300 300 299 298 299 297 291 288 288 287 286 285 285 285 284 284 286 286 285
289 290 291 292 293 294 294 295 296 298 299 300 300 300 300 299 298 298 298 298 299 295 295 292 287 287 287 286 286 285 285 285 285 285 285 285 285 285
289 290 290 290 291 293 292 294 295 296 296 297 298 298 298 297 296 296 296 297 296 294 293 286 286 286 286 286 286 285 285 286 286 285 285 286 286 286
288 288 288 288 289 291 291 292 293 294 294 295 295 296 296 295 294 295 297 294 294 291 286 286 286 285 285 285 285 287 286 286 286 285 285 285 288 289
286 286 286 287 289 289 290 291 292 293 293 293 293 293 294 293 294 295 293 292 290 286 286 285 285 285 284 285 286 286 286 285 286 286 287 287 287 289
284 284 286 287 288 288 289 290 291 291 291 291 291 291 291 292 293 293 292 293 286 285 285 285 284 284 284 283 284 286 286 287 286 287 288 288 289 289
283 284 285 286 287 288 288 289 290 290 289 290 290 289 289 291 292 293 292 286 285 285 285 283 283 283 284 284 286 289 289 288 288 289 289 287 287 289
283 283 285 285 286 288 288 289 289 289 288 288 288 288 290 291 292 291 286 286 285 284 284 283 283 284 285 287 288 288 290 289 288 288 288 287 285 286
282 283 284 285 287 287 287 289 289 288 288 288 288 289 291 292 290 286 285 285 284 283 283 284 284 286 287 288 288 289 288 288 290 291 290 289 289 289

GFSNE_850_thetae_012.txt.gz
Theta_e
313 313 314 315 315 315 318 320 325 326 325 324 324 324 324 322 321 321 321 321 319 320 321 321 320 319 318 318 318 318 319 319 317 315 314 313 309 305
312 313 314 314 315 315 315 316 317 320 322 321 322 323 324 323 323 323 322 322 322 320 319 321 321 320 319 318 318 317 318 319 316 315 313 313 306 301
310 310 311 311 312 312 313 313 313 315 318 318 319 320 321 321 322 322 322 322 322 322 320 320 320 320 320 319 319 318 317 318 316 314 312 311 304 295
305 307 307 307 308 309 309 310 311 312 313 315 316 317 317 318 320 320 320 321 322 321 318 321 320 321 320 319 319 317 317 317 314 312 310 306 297 293
304 305 305 304 303 300 304 306 307 308 310 313 314 314 314 317 317 319 319 320 321 321 320 319 320 320 320 319 318 318 316 315 311 307 306 300 292 293
300 301 301 296 296 297 302 304 305 308 310 312 311 313 313 314 316 317 318 317 317 319 318 319 319 319 319 319 317 316 315 311 309 307 302 299 290 290
297 297 295 292 292 299 299 294 298 304 305 306 308 311 313 313 314 314 316 316 316 317 316 314 315 317 317 316 315 314 313 308 306 304 296 293 290 289
293 293 292 291 293 295 291 291 293 298 301 303 304 306 308 311 313 312 315 314 314 316 314 315 314 316 311 313 314 313 307 306 305 295 292 291 292 291
290 290 289 290 295 294 291 291 291 293 297 300 302 304 306 307 309 311 312 314 313 314 314 313 312 311 310 309 308 305 303 303 301 292 292 291 291 290
289 288 289 293 293 292 291 291 291 293 296 298 299 301 302 303 305 308 310 311 313 314 313 311 311 308 308 306 303 301 301 299 298 295 291 291 290 289
289 290 292 292 291 292 292 292 292 295 297 298 300 301 302 303 304 305 306 308 309 311 311 310 309 307 302 301 300 300 299 300 294 291 292 291 290 288
290 290 289 290 290 291 291 292 293 295 296 298 300 301 302 303 305 305 306 306 309 308 308 306 302 299 296 297 298 297 295 291 291 291 291 291 290 288
289 289 288 289 290 290 293 293 295 294 295 296 297 300 301 302 304 305 306 306 308 308 310 305 300 298 299 295 295 294 293 290 291 291 290 290 289 289
288 288 288 289 289 291 292 292 293 293 294 294 295 297 299 301 302 302 302 304 306 305 304 303 299 299 300 293 292 292 290 287 287 288 288 287 287 288
287 288 288 289 289 290 289 291 291 292 291 292 293 295 297 298 298 297 298 300 300 299 299 297 298 298 298 296 289 287 287 286 286 286 285 285 284 284
286 286 287 287 287 287 289 289 289 290 290 291 292 293 295 295 294 295 296 296 297 294 293 296 295 295 291 287 287 287 286 286 285 285 284 284 284 285
285 285 285 284 285 287 288 288 288 289 289 290 291 292 292 293 293 293 294 294 295 292 292 293 289 286 286 287 286 286 285 285 285 285 285 285 285 285
284 284 283 283 284 285 286 287 287 289 289 290 291 290 291 291 291 291 292 292 293 291 291 287 286 286 286 285 285 285 285 285 285 285 284 285 286 286
282 283 283 283 284 285 285 286 287 288 288 289 289 289 289 289 289 290 290 291 291 287 286 286 286 285 285 285 285 286 286 286 285 285 286 286 287 288
282 282 282 282 283 284 285 286 287 287 288 288 288 287 288 288 289 290 290 291 286 286 285 284 284 284 285 284 285 286 286 286 287 288 288 288 288 288
281 281 281 282 283 283 286 286 286 287 287 287 287 287 287 287 289 290 290 286 285 285 284 284 283 283 285 286 287 289 288 288 289 288 288 287 287 288
281 281 281 281 282 284 286 286 286 287 287 287 287 287 287 288 290 290 286 285 285 284 283 283 284 285 286 288 289 289 289 288 287 288 288 288 287 287
280 281 281 281 282 285 285 285 286 286 287 287 287 287 288 289 289 285 285 285 284 284 283 285 286 288 289 289 288 289 289 289 290 290 290 289 288 287

GFSNE_850_thetae_015.txt.gz
Theta_e
305 307 309 309 309 309 310 312 314 315 315 316 317 318 319 320 322 322 321 320 322 321 322 321 320 320 320 321 320 320 319 318 318 319 320 319 320 317
302 303 303 305 306 306 306 307 307 309 312 312 313 313 315 315 316 318 320 320 319 321 320 322 321 321 320 320 321 320 320 318 318 318 320 318 319 317
299 301 303 304 304 303 303 302 300 304 307 307 308 309 312 314 313 314 315 316 316 317 319 320 320 321 321 321 320 321 321 319 318 318 318 319 316 316
298 299 301 300 298 298 297 294 296 299 304 306 306 309 310 311 312 313 314 315 316 316 316 319 318 319 320 321 320 320 320 320 319 318 319 318 316 315
297 296 294 294 294 293 293 292 299 302 294 295 300 306 306 307 311 311 312 313 313 315 316 315 318 316 317 319 317 319 320 320 319 318 318 315 315 312
294 293 292 292 291 291 291 295 300 298 292 296 297 298 300 302 306 308 310 311 312 312 312 314 315 315 316 314 315 318 319 318 319 318 318 317 312 311
291 290 289 289 289 291 293 296 295 294 294 295 296 296 297 300 302 304 306 307 308 309 311 311 311 314 315 316 314 315 316 317 317 317 315 314 311 312
287 286 286 287 287 291 293 293 293 294 294 294 294 294 296 297 298 300 302 304 306 308 311 311 312 313 314 315 315 314 315 315 315 314 312 310 306 305
287 287 287 288 289 290 290 291 291 292 292 292 293 293 295 296 297 298 299 300 303 305 308 309 311 310 310 314 314 312 312 313 311 310 309 307 305 301
288 288 289 289 289 289 289 290 290 290 290 292 292 294 295 296 298 298 299 300 301 302 304 306 307 309 310 311 311 309 310 308 306 304 303 302 298 298
288 289 289 288 288 289 289 290 289 290 291 292 294 294 294 295 297 298 300 301 301 302 304 305 307 308 308 308 305 306 306 303 301 300 298 296 296 293
288 288 287 288 288 289 289 289 290 290 291 293 292 292 293 294 296 298 300 301 301 302 303 304 304 305 300 302 300 299 298 298 299 298 295 294 293 292
287 286 286 287 288 288 288 288 289 290 291 292 290 291 291 292 294 295 297 298 299 299 300 302 304 302 299 297 296 297 297 297 296 294 293 292 292 291
286 286 287 287 287 287 286 287 288 289 289 289 289 290 290 291 292 293 295 295 296 297 299 299 300 301 299 294 292 293 293 294 293 292 292 292 292 292
286 287 286 285 285 284 284 286 287 287 288 288 289 289 289 290 291 292 292 292 294 295 297 297 298 298 297 297 293 291 291 291 292 292 292 291 291 290
287 285 284 283 284 283 283 284 285 285 287 287 288 288 288 290 290 290 290 291 291 291 292 293 294 295 296 296 294 291 293 292 291 290 289 289 289 288
285 283 282 282 282 282 282 283 284 285 286 287 288 287 288 288 289 289 290 289 290 290 291 291 292 292 289 290 289 293 289 286 287 287 287 287 285 284
283 282 281 281 281 281 282 283 284 284 285 286 287 287 287 288 288 288 289 290 290 289 289 289 286 285 285 285 285 286 286 285 285 285 284 284 284 284
282 281 281 280 280 281 281 283 283 284 285 286 287 286 287 287 287 288 288 289 289 288 285 285 285 285 285 284 284 284 284 284 284 284 284 285 285 285
281 280 280 280 280 280 281 282 283 284 285 286 286 286 286 286 287 287 288 288 287 285 284 283 283 284 285 285 285 285 285 285 286 285 286 286 286 286
280 280 280 279 280 280 281 282 283 284 284 285 286 286 286 286 287 287 288 286 285 284 283 283 284 285 286 287 287 287 287 287 288 287 287 287 287 287
280 279 279 279 280 281 282 282 283 284 285 285 286 286 286 287 287 287 285 285 284 282 282 284 285 287 289 289 289 288 287 287 288 288 288 287 287 287
279 279 279 279 281 282 283 283 284 285 285 286 286 286 287 288 285 285 284 283 282 283 285 287 289 288 288 289 289 289 290 289 289 289 288 287 287 286

GFSNE_850_thetae_018.txt.gz
Theta_e
300 299 297 299 301 304 305 301 302 303 303 303 304 306 307 308 309 311 311 313 314 315 316 318 319 320 321 321 321 321 321 320 321 321 319 317 319 319
292 291 293 298 300 302 298 297 296 298 300 299 300 301 302 303 304 306 307 309 311 312 314 315 316 317 317 319 319 320 320 320 320 320 321 319 318 320
289 290 296 296 296 295 295 294 294 293 296 296 299 302 301 294 297 306 307 308 309 310 312 313 314 315 316 317 318 319 319 320 320 320 320 320 319 318
290 292 291 291 290 290 291 290 291 293 295 299 298 297 296 294 294 293 296 300 304 309 309 309 311 313 315 316 316 317 319 318 318 319 320 320 320 318
291 290 289 287 287 288 289 290 291 292 295 295 294 292 293 293 294 293 294 297 301 306 310 310 312 311 312 313 314 314 315 316 317 318 316 319 320 319
289 288 287 287 287 288 289 290 291 292 292 292 292 293 293 294 294 294 295 297 297 299 303 306 306 307 308 309 310 311 314 315 315 316 315 317 319 320
288 287 286 287 288 289 290 290 291 290 290 291 291 292 292 292 293 293 294 296 297 299 300 302 303 304 308 310 310 310 314 315 315 315 315 314 318 320
286 286 287 287 288 289 289 289 290 290 289 289 290 290 290 291 292 292 293 295 296 297 299 300 300 304 307 309 311 311 311 310 314 315 314 313 318 318
286 286 287 287 288 288 288 289 289 289 290 289 289 289 290 290 292 292 294 295 296 296 297 298 299 300 303 304 306 307 307 308 311 312 313 315 315 314
286 287 287 288 287 287 288 288 288 288 287 289 290 290 291 293 294 294 293 294 296 297 298 299 299 300 302 305 306 307 308 308 310 311 313 314 311 309
286 286 287 286 286 288 288 287 287 287 286 287 289 290 291 291 291 292 293 293 294 296 297 300 301 301 301 302 304 306 306 308 309 310 311 307 303 303
286 287 285 286 287 288 286 287 287 285 286 287 289 288 288 289 289 290 290 292 294 293 296 300 301 301 301 302 303 305 305 305 307 306 303 300 302 300
286 285 284 286 287 286 285 285 285 286 287 287 286 287 287 288 289 289 289 290 290 290 292 293 295 297 298 300 301 301 304 302 301 299 298 297 297 297
285 284 286 286 285 284 284 284 285 285 285 285 285 286 287 288 288 288 289 289 289 290 292 293 292 294 296 297 298 299 299 299 298 297 296 295 294 294
284 285 285 284 283 282 282 283 283 283 283 284 285 285 286 287 287 288 288 289 288 289 290 291 292 293 294 296 296 295 295 295 295 295 294 294 293 292
285 284 283 282 281 281 281 281 282 282 283 284 284 284 286 286 286 287 287 287 287 288 289 289 291 292 294 293 294 292 292 293 293 293 293 293 292 293
283 282 281 281 280 280 280 281 282 281 283 282 283 284 285 286 286 287 287 287 288 288 288 288 289 290 291 290 289 290 291 292 292 292 292 293 293 292
281 281 281 280 280 280 280 280 281 281 282 282 283 284 285 286 286 287 287 287 287 286 286 287 288 289 288 288 289 291 292 291 291 292 291 291 291 291
280 281 280 279 279 279 279 280 280 281 281 282 283 284 285 285 286 286 286 286 286 286 285 284 284 284 284 284 287 287 287 286 289 289 288 288 288 287
279 279 279 279 279 279 279 280 280 281 282 282 284 285 285 286 286 286 287 287 286 285 283 283 283 284 284 284 283 283 283 284 285 286 284 283 283 284
279 279 279 278 279 279 280 281 280 281 282 283 284 285 286 286 286 286 286 285 284 283 283 283 284 285 285 285 284 284 284 284 284 285 284 284 284 285
278 278 278 278 279 279 281 280 280 282 283 284 284 285 286 287 286 285 284 284 283 282 283 285 287 288 288 288 288 287 286 286 285 285 285 286 287 288
278 278 278 279 279 280 281 280 282 283 284 284 285 286 285 285 284 283 282 282 284 287 288 288 288 288 288 288 288 288 287 287 287 287 287 286 286 286

GFSNE_850_thetae_021.txt.gz
Theta_e
290 289 289 290 297 297 298 298 295 296 297 297 296 296 297 297 300 302 302 299 299 304 308 308 309 311 313 315 316 317 318 317 321 321 321 321 322 321
289 289 290 293 291 290 290 290 290 294 295 292 291 293 294 298 298 298 296 298 296 298 301 304 307 309 311 312 314 314 316 316 316 321 320 321 321 321
288 289 292 290 289 288 287 288 290 291 290 289 292 292 296 295 294 293 293 291 293 294 295 296 300 303 309 310 309 312 315 316 318 319 320 319 320 321
288 290 290 288 287 287 288 289 289 290 291 291 291 294 293 292 292 292 293 294 293 293 298 300 299 305 308 308 309 311 312 315 316 316 317 318 320 320
288 288 288 287 287 287 288 289 289 290 290 291 290 290 290 291 291 291 291 292 292 293 296 297 297 297 303 307 309 309 309 311 313 313 314 316 317 317
287 287 287 287 287 288 288 289 289 289 289 290 290 290 289 290 290 290 289 290 291 293 294 295 297 298 298 301 303 305 307 309 310 311 312 314 316 317
286 286 286 287 287 288 288 288 288 288 289 289 289 289 290 290 289 289 290 290 291 291 292 294 296 297 299 301 304 306 306 307 309 311 312 314 315 315
286 286 286 286 287 287 288 288 288 288 289 289 289 288 288 288 289 290 290 291 292 292 293 296 295 295 296 296 299 300 304 307 310 311 307 308 314 315
286 286 285 286 287 286 286 287 288 288 287 287 287 287 287 287 288 289 291 291 292 293 293 294 294 295 296 297 298 301 303 303 306 306 306 308 312 314
285 286 286 286 285 286 287 288 287 286 285 286 286 286 286 287 289 290 291 291 290 291 291 294 293 294 296 298 300 301 302 303 304 306 308 308 310 311
285 285 286 285 285 287 287 287 285 285 285 285 286 287 288 288 288 289 289 290 290 290 290 292 294 295 297 299 300 300 301 302 304 306 307 308 311 312
285 285 285 285 286 286 286 285 284 283 285 285 284 285 286 286 286 287 288 289 289 289 290 291 291 291 294 299 300 300 301 303 305 307 308 309 310 311
285 284 284 285 287 285 284 284 283 284 284 284 284 284 284 285 285 286 287 288 288 288 288 289 289 290 292 294 295 297 298 302 305 307 307 308 310 308
284 283 284 285 284 283 283 283 283 283 282 282 282 283 284 284 284 285 286 287 287 287 287 287 287 288 289 292 293 295 299 303 305 302 300 299 300 302
283 284 284 283 282 281 281 282 282 281 281 281 282 282 283 283 284 285 286 286 287 287 287 286 287 288 289 290 292 296 298 299 300 299 297 298 299 299
284 283 282 281 281 281 280 280 280 280 281 281 281 282 282 283 283 285 286 286 286 286 286 286 287 288 288 290 292 294 296 295 296 297 295 295 295 294
282 281 280 280 280 280 280 280 280 280 281 281 281 281 282 283 284 285 286 286 286 285 285 286 285 285 288 289 290 291 293 293 295 295 294 294 293 292
281 280 279 279 279 279 279 279 280 280 280 280 281 281 282 283 285 286 286 285 285 285 286 286 286 286 286 286 288 290 292 293 293 294 294 293 292 292
280 279 279 279 279 279 279 279 280 280 280 280 281 282 283 284 285 286 285 285 285 284 283 284 284 286 287 285 287 290 292 291 292 292 292 292 291 291
279 278 278 278 278 278 279 279 279 279 280 281 282 283 284 285 285 285 285 285 284 282 282 283 284 284 288 286 284 284 287 291 291 292 292 291 291 290
278 278 278 278 278 279 279 279 279 280 280 282 283 283 285 285 285 285 284 283 282 282 283 284 285 284 284 284 283 282 284 288 290 290 289 288 288 287
278 278 278 278 278 279 280 279 279 281 282 283 284 284 284 284 283 282 281 282 283 284 285 287 288 287 285 285 284 283 283 283 283 283 283 284 284 284
278 277 278 278 279 280 280 279 280 282 284 284 284 283 283 282 281 282 286 286 287 287 288 288 288 288 288 288 286 284 284 284 284 285 286 287 287 288

GFSNE_850_thetae_024.txt.gz
Theta_e
291 292 292 293 295 295 293 293 293 293 292 292 293 294 292 292 293 295 298 298 297 296 295 299 298 296 300 303 305 309 310 312 314 315 313 314 320 325
290 291 291 292 293 292 291 290 290 290 291 292 293 291 292 292 293 294 296 294 293 295 295 297 299 298 295 296 300 301 306 311 313 314 316 316 316 318
290 290 290 291 291 290 289 289 289 290 291 290 291 291 291 292 292 292 292 292 293 293 294 295 296 296 298 301 300 303 305 309 311 312 314 316 316 317
289 289 289 289 289 288 289 289 289 290 290 291 290 290 291 291 291 291 291 291 292 292 292 293 294 295 297 298 298 300 302 307 309 310 312 315 316 318
289 289 289 288 288 288 288 288 289 289 290 289 289 290 290 290 290 290 291 291 291 290 291 291 292 294 294 296 298 299 299 301 307 309 311 313 315 317
288 288 288 287 287 288 288 288 289 289 288 289 289 289 290 289 290 290 290 290 290 291 291 292 293 294 295 296 297 298 299 302 303 305 307 310 312 313
288 287 287 287 287 287 288 288 288 288 288 288 289 290 288 288 288 289 289 289 289 290 290 292 292 293 294 296 297 295 297 299 302 306 307 309 311 311
287 287 287 287 287 287 287 287 287 288 289 289 288 288 287 287 288 288 287 288 289 290 291 291 292 293 292 293 295 296 296 297 298 302 306 308 310 310
286 286 286 286 286 286 286 286 287 288 288 288 287 286 286 286 286 287 288 289 290 289 289 290 290 292 292 292 293 295 296 298 299 300 302 307 308 309
286 286 286 286 286 286 286 287 288 287 286 285 285 285 286 286 287 287 287 287 288 289 290 291 291 291 291 292 292 295 296 299 300 301 302 304 307 308
286 286 286 286 285 286 287 286 285 285 284 284 285 286 286 286 286 286 286 287 287 288 289 290 289 291 292 292 292 293 298 300 300 301 302 303 304 306
285 286 285 285 285 286 286 285 284 283 284 284 284 284 284 284 285 285 286 286 286 287 287 289 288 289 290 290 294 296 297 299 300 301 302 303 305 305
285 284 284 285 285 285 284 284 283 284 283 283 283 283 283 283 284 284 284 284 285 286 286 288 288 288 289 289 289 291 293 297 299 300 302 305 306 307
284 284 284 285 284 283 283 283 283 283 282 282 282 282 283 283 283 283 284 284 285 285 286 287 287 288 287 287 288 290 292 295 300 304 306 306 306 308
284 284 284 283 282 281 282 282 282 282 281 282 282 282 282 282 283 283 284 285 286 287 287 287 286 286 285 286 287 289 292 296 299 304 304 303 303 303
284 284 282 282 281 281 281 281 281 281 281 281 281 281 282 282 283 283 284 286 287 287 286 285 285 284 285 286 288 290 291 294 295 300 299 298 298 298
284 281 281 281 280 280 280 280 280 280 281 280 280 281 281 282 283 285 286 286 285 285 285 285 284 285 285 287 289 290 292 292 294 297 298 297 297 298
281 281 280 280 280 280 280 280 280 280 280 280 280 281 282 283 285 286 285 285 284 284 284 285 284 285 286 286 288 289 291 292 294 296 296 295 293 294
280 280 279 279 279 279 279 280 279 279 280 280 280 282 283 284 285 285 285 285 284 283 282 282 284 287 286 285 286 288 290 292 294 293 293 293 292 292
279 279 279 279 279 279 279 279 279 279 280 280 282 283 284 284 284 283 283 283 283 283 283 283 284 287 287 285 284 286 290 292 293 292 292 292 291 290
279 279 279 279 279 279 279 279 279 280 280 281 282 283 283 283 282 281 283 284 284 284 285 285 283 283 283 284 286 287 289 291 292 292 291 291 290 290
278 278 278 278 279 279 279 279 280 282 282 282 282 282 283 282 283 285 285 286 286 286 286 286 286 283 284 283 284 285 287 288 289 290 290 290 289 287
278 278 278 279 279 279 279 280 282 283 283 282 282 283 284 284 285 285 286 287 286 287 287 287 287 285 284 284 283 283 283 284 284 284 284 286 286 286

GFSNE_850_thetae_027.txt.gz
Theta_e
291 291 291 291 292 292 293 293 293 292 291 291 291 291 292 291 291 292 292 293 293 294 294 295 295 296 296 298 300 300 300 303 305 308 309 309 310 312
290 290 291 291 291 291 291 291 290 290 290 290 290 290 291 291 291 292 291 292 292 292 293 293 294 295 295 296 297 297 298 300 303 304 307 311 311 312
289 290 290 290 290 290 290 289 289 290 290 290 290 290 290 290 290 291 290 291 291 291 292 292 293 293 293 293 294 296 297 299 301 304 305 308 311 312
289 289 289 289 289 289 289 289 289 289 289 289 289 289 290 289 290 290 291 290 290 290 291 291 292 292 293 293 294 295 296 297 298 300 302 304 308 311
288 288 289 289 288 288 288 288 288 288 289 289 289 289 289 289 290 290 290 288 288 289 290 290 291 292 293 293 294 295 295 296 298 299 300 302 305 309
288 288 288 288 288 287 287 288 288 288 288 288 288 289 289 289 290 289 288 288 288 289 288 288 290 291 292 293 293 294 296 296 298 297 300 302 304 307
287 287 287 287 287 288 288 288 287 288 288 288 288 289 289 288 288 287 287 287 287 287 288 289 290 291 291 291 291 293 294 297 297 297 299 300 303 307
287 287 287 287 287 287 287 287 288 287 287 288 289 288 287 286 286 286 286 287 287 287 288 288 288 289 290 291 291 293 294 294 295 295 296 297 299 304
286 286 286 286 286 286 286 287 287 287 287 286 287 286 285 285 285 286 287 287 287 287 287 288 288 289 291 290 292 292 293 294 295 295 296 298 299 301
286 286 286 286 285 286 286 286 286 286 285 285 285 285 285 285 286 286 286 286 285 286 287 288 287 289 288 289 290 290 291 292 293 295 296 298 299 301
285 285 285 286 286 286 286 286 285 284 284 284 285 285 285 285 285 285 285 285 285 286 286 286 286 287 287 288 288 289 292 294 295 297 298 299 300 302
285 285 285 285 286 286 286 285 284 283 284 284 283 283 283 283 284 284 284 284 284 285 285 285 285 286 287 288 291 291 290 290 292 295 299 300 300 301
285 284 284 285 286 285 284 283 283 284 283 283 282 282 282 283 283 283 283 283 284 284 284 285 285 286 287 287 288 288 288 289 292 294 297 300 300 301
284 284 284 285 284 284 283 283 283 283 282 282 282 282 282 282 282 282 283 283 284 284 286 286 286 286 286 288 287 287 287 290 293 298 300 301 301 302
284 284 284 283 283 282 282 282 282 281 281 281 281 281 281 282 282 283 284 285 286 286 287 287 288 287 286 285 285 285 287 291 294 299 304 305 305 304
283 284 282 282 282 281 281 281 281 281 281 281 281 281 281 282 283 284 285 286 285 285 285 285 285 284 285 286 286 288 289 291 294 297 301 302 302 302
283 282 281 281 280 280 280 280 280 280 280 280 280 280 281 282 283 285 286 285 285 284 283 283 284 285 285 287 289 290 291 292 293 295 299 298 298 298
282 280 280 280 280 280 280 280 280 280 280 280 280 281 281 283 284 283 283 284 284 284 283 282 285 286 286 286 288 289 291 292 293 295 297 298 297 297
280 280 279 279 280 279 280 280 279 279 280 280 281 281 282 283 283 283 283 284 285 284 284 282 285 286 286 285 287 289 291 292 294 294 294 295 294 294
279 279 279 279 279 279 279 279 279 280 280 281 282 282 282 283 283 283 284 284 285 285 285 283 285 285 285 284 285 287 291 292 293 292 292 293 293 294
279 279 279 279 279 279 279 279 279 280 281 282 282 282 282 283 283 283 284 285 285 285 285 285 283 284 286 286 286 287 288 291 292 291 291 292 291 292
278 278 279 279 279 279 279 279 280 281 283 283 283 283 283 284 283 284 285 285 286 286 285 285 284 284 287 287 286 286 287 289 290 291 291 291 290 289
278 278 278 279 280 280 280 280 281 282 283 283 283 283 285 285 285 285 285 285 286 286 286 285 284 284 285 286 286 286 287 289 289 290 290 290 290 291

GFSNE_850_thetae_030.txt.gz
Theta_e
290 289 289 289 290 290 290 290 291 291 290 290 289 289 289 289 289 290 290 290 291 291 292 292 293 294 294 294 294 296 297 297 298 299 300 301 306 307
288 288 288 289 289 289 290 290 289 289 289 289 289 289 288 289 289 289 289 289 290 290 292 292 293 293 293 293 294 295 295 295 295 296 298 300 302 306
287 287 288 288 289 289 289 289 289 288 288 288 287 288 288 288 287 288 288 289 289 290 291 291 290 290 292 293 293 293 293 294 295 296 297 299 301 303
286 286 286 287 288 288 288 288 288 287 287 287 288 288 287 287 287 287 288 289 289 289 289 289 289 290 292 292 291 291 292 294 295 295 296 297 298 299
285 285 286 287 287 288 287 287 287 287 288 288 287 287 287 287 287 288 289 288 287 287 286 287 288 289 289 290 291 292 293 293 294 295 296 297 298 301
285 285 286 287 287 287 287 287 288 288 287 287 288 288 287 287 287 287 287 286 286 286 286 286 287 288 289 290 291 291 291 291 292 294 295 296 297 299
285 286 286 286 287 287 287 287 287 287 287 288 287 286 288 286 285 285 285 285 285 285 286 286 286 286 286 287 288 289 290 292 293 294 294 295 298 297
285 286 286 285 286 286 286 286 287 288 287 287 287 285 285 284 285 284 284 285 285 286 286 285 286 285 286 287 288 290 292 292 293 294 294 295 295 296
285 285 285 285 285 285 285 287 286 286 286 286 285 284 284 284 285 285 285 286 286 285 284 284 285 285 286 287 287 289 289 290 291 292 293 294 295 296
285 285 285 285 285 286 286 286 286 285 284 284 284 284 285 285 285 285 284 284 284 284 284 284 285 285 284 285 286 287 288 289 290 291 292 293 294 296
285 285 285 285 285 286 286 286 285 284 283 283 284 284 284 284 284 284 284 283 283 284 283 283 283 284 284 284 285 287 288 290 290 292 291 294 294 296
285 285 284 284 285 286 286 285 284 283 283 284 283 282 282 282 282 282 282 282 282 283 283 283 283 284 285 285 287 287 287 287 288 289 290 293 295 298
284 284 283 283 285 285 284 283 283 284 283 282 281 281 281 281 281 282 282 282 282 282 284 284 284 285 285 285 286 286 287 287 288 289 292 294 296 298
284 283 283 285 284 283 283 282 283 283 281 281 281 281 281 281 282 283 284 285 285 285 285 285 285 285 285 285 285 286 286 288 290 291 293 297 297 299
282 283 284 283 282 281 281 282 281 280 280 281 281 280 280 281 282 283 283 284 284 285 285 284 284 284 284 284 285 287 287 290 291 292 295 299 299 298
283 283 282 281 280 280 280 280 280 280 280 280 280 280 281 282 283 283 283 283 284 284 285 284 283 283 284 285 287 289 290 290 292 294 295 301 302 300
283 282 280 279 279 279 280 280 280 280 280 280 280 281 282 282 283 283 283 283 284 284 284 284 286 286 286 286 287 289 290 292 294 295 297 301 301 302
281 279 279 279 279 279 279 279 279 279 280 281 281 282 282 282 282 283 283 283 284 285 284 284 285 286 287 286 287 290 291 292 294 295 296 296 296 296
279 279 279 279 279 279 279 279 279 280 280 281 282 282 282 282 282 283 284 284 285 285 285 284 284 285 285 285 288 290 291 292 294 295 295 295 295 295
279 279 278 278 279 279 279 279 279 280 281 282 282 282 283 283 283 284 284 285 286 285 285 283 285 285 285 285 286 288 292 293 293 294 294 294 293 294
278 278 278 278 279 279 279 279 280 280 281 282 283 283 283 283 285 284 285 285 286 286 285 284 284 286 287 287 288 289 290 292 293 293 293 293 293 293
278 278 278 279 279 279 279 280 280 281 282 283 283 284 284 285 285 285 285 286 287 286 285 284 286 287 288 287 288 289 290 291 291 291 292 292 292 291
277 278 278 279 280 280 280 280 281 282 283 283 284 285 285 285 286 286 286 286 287 287 286 284 285 287 287 287 288 289 290 290 291 292 291 292 291 291

GFSNE_850_thetae_033.txt.gz
Theta_e
289 288 288 287 286 287 288 288 289 289 288 288 288 288 288 287 287 288 288 287 288 289 290 290 291 292 293 294 294 294 294 294 295 297 297 297 298 299
288 287 286 286 285 286 287 287 288 288 288 287 287 287 287 287 287 287 287 287 287 288 289 290 291 292 292 293 292 291 293 294 294 295 295 297 297 297
287 286 286 285 285 286 287 287 287 287 287 287 287 287 287 287 287 287 287 287 287 288 289 290 291 290 290 290 290 291 291 293 294 294 294 296 297 298
286 286 285 285 286 286 286 287 287 287 287 287 287 287 286 287 287 286 286 287 286 286 287 288 288 288 288 289 290 291 290 291 291 292 293 293 295 297
287 286 285 285 285 286 286 287 287 287 287 287 287 286 287 287 286 286 286 285 284 285 285 285 286 287 287 288 289 290 290 291 292 292 293 294 294 295
286 286 285 285 285 286 286 286 287 286 286 286 287 287 286 286 286 284 284 284 284 284 284 285 285 286 287 287 288 288 288 289 290 290 292 292 293 293
286 286 285 285 285 286 286 286 286 286 287 288 286 286 287 284 284 284 283 284 284 284 285 285 285 285 285 285 285 286 287 288 290 291 292 293 293 294
286 286 285 285 285 285 285 285 286 287 286 286 287 285 284 284 283 283 284 285 285 284 284 284 284 284 284 284 285 286 288 289 289 290 291 292 292 294
286 285 285 285 284 284 284 285 285 285 286 285 284 284 284 283 284 285 284 283 284 283 283 283 283 283 283 284 285 286 287 287 288 289 291 291 292 294
285 285 285 284 284 285 285 285 286 285 284 284 283 284 284 285 284 283 283 283 283 282 282 283 283 283 283 283 284 285 286 287 287 288 289 290 291 292
284 284 284 284 283 285 285 285 284 283 282 283 284 283 283 283 283 283 282 282 282 282 283 282 282 283 283 284 285 285 287 287 288 288 289 290 291 291
284 284 283 283 284 285 285 284 282 282 283 283 282 282 281 281 281 281 281 281 281 282 283 283 283 284 284 284 285 285 285 286 286 288 289 290 290 291
284 283 282 283 285 284 283 282 282 283 283 281 281 281 281 281 281 282 282 282 282 282 284 284 284 284 284 284 285 285 285 285 286 286 287 287 289 291
284 282 283 284 283 282 281 282 283 282 280 280 280 281 281 281 282 283 283 283 283 283 284 284 284 285 284 283 283 285 286 288 289 289 290 290 291 291
283 283 282 282 281 280 280 281 281 280 280 280 280 280 281 282 282 282 283 283 283 284 285 284 284 284 283 282 284 286 286 290 290 291 291 292 293 294
283 282 281 280 280 280 280 280 279 280 280 280 280 281 282 282 282 282 283 284 284 285 285 284 284 284 285 286 286 287 289 289 291 292 293 295 298 297
282 281 279 279 279 279 280 279 279 279 280 280 281 281 282 282 282 283 284 284 284 285 285 285 285 286 287 286 286 288 290 292 293 294 295 297 299 299
280 279 278 278 278 279 279 279 279 279 280 281 281 281 281 282 282 283 284 285 285 286 285 284 285 287 288 288 288 290 292 293 293 294 295 298 298 299
278 278 278 278 278 279 279 279 279 280 281 281 282 282 283 283 283 284 285 285 286 286 285 284 286 286 286 286 288 290 292 293 293 294 294 295 295 295
278 278 278 278 278 279 279 279 280 281 281 281 283 284 284 283 283 284 286 285 286 286 285 285 286 286 286 287 287 289 292 293 293 293 293 293 294 296
278 278 278 278 279 280 279 280 280 281 281 283 284 284 285 284 284 286 286 286 286 286 285 286 286 287 288 289 289 291 292 293 293 293 293 293 293 294
278 278 278 280 280 280 280 281 281 282 283 284 285 285 285 285 285 286 286 286 287 286 285 286 287 288 289 290 290 291 291 292 292 293 293 293 293 293
278 278 279 281 281 281 281 282 282 283 284 285 286 286 286 286 286 287 287 287 287 287 286 285 287 288 289 289 290 291 291 291 292 292 292 292 293 293

GFSNE_850_thetae_036.txt.gz
Theta_e
288 288 287 287 286 286 285 285 286 287 287 287 287 287 287 287 287 287 287 287 288 288 288 289 289 290 291 292 293 293 294 295 295 296 295 295 296 297
287 287 287 286 286 285 285 286 286 286 287 286 286 286 286 286 287 287 287 287 286 287 288 289 289 290 291 291 292 292 292 293 293 293 294 295 296 297
287 287 286 286 285 285 285 285 286 286 286 286 286 286 286 286 286 286 286 286 286 286 287 287 288 288 288 289 290 290 291 291 291 292 293 294 295 296
287 286 286 286 285 285 285 285 286 286 286 286 286 286 285 286 286 286 286 286 285 284 285 286 286 287 287 288 288 289 290 290 290 291 291 292 293 294
287 286 286 286 285 285 285 285 286 286 286 285 285 286 286 286 286 286 285 284 283 283 284 285 285 286 287 287 287 288 289 289 290 290 291 291 292 293
286 286 286 286 285 285 286 286 286 285 285 285 286 286 286 286 285 284 283 283 283 284 284 284 285 285 286 286 287 287 288 288 288 288 289 290 290 292
286 286 286 285 285 285 286 285 285 285 286 286 285 285 286 284 283 283 283 283 284 284 284 283 283 284 283 284 284 285 285 286 287 288 288 289 290 291
286 285 284 284 284 285 284 285 285 286 285 286 285 284 283 283 283 284 284 284 283 283 283 283 283 283 283 283 284 285 285 286 287 288 288 289 290 291
284 284 283 284 284 283 284 284 284 285 284 284 283 283 283 283 284 284 283 283 283 282 282 282 282 282 283 283 284 284 285 286 287 287 288 289 289 289
284 283 284 284 283 284 285 285 285 283 283 282 282 283 284 284 283 283 283 283 282 282 282 282 282 282 283 284 285 284 285 285 286 287 288 288 288 289
284 285 284 283 283 285 286 284 283 282 282 283 283 283 282 282 282 283 282 281 281 281 282 281 282 282 283 284 284 284 285 285 287 287 288 288 288 289
285 284 283 283 284 285 284 283 282 282 283 283 281 282 282 283 282 282 281 281 281 281 282 282 282 283 284 284 284 284 284 284 285 286 287 288 289 289
284 284 282 283 284 283 282 282 282 283 282 281 281 281 282 282 282 282 282 281 281 281 284 283 283 283 284 284 284 284 284 286 286 287 287 286 288 289
284 282 283 283 282 281 281 281 282 282 281 280 280 281 281 282 283 283 283 284 283 283 285 285 284 284 284 284 284 286 287 287 287 288 289 289 288 288
283 283 282 281 280 280 280 281 281 280 280 280 280 281 281 282 283 283 284 284 285 285 285 285 284 284 283 284 285 286 286 289 290 291 290 290 290 290
282 282 280 280 280 280 281 281 280 279 280 280 280 282 282 283 283 283 284 284 285 286 286 284 285 285 286 287 287 287 290 286 291 292 292 292 292 292
282 280 280 279 279 280 280 280 280 280 280 280 281 282 283 282 283 284 284 284 285 285 285 285 287 287 288 288 288 288 291 292 292 294 295 296 296 295
280 279 279 278 279 279 279 279 280 280 281 281 282 282 282 282 283 284 285 285 285 285 285 285 286 288 289 290 289 290 292 292 292 294 295 297 297 298
279 279 278 278 279 279 279 280 280 281 281 282 282 283 283 284 284 285 285 285 286 286 285 286 286 286 287 286 290 291 293 293 293 292 292 294 295 298
278 278 278 278 279 280 280 280 281 282 283 283 283 284 284 284 285 285 285 285 285 286 285 287 287 287 288 288 287 290 293 293 293 293 293 293 293 296
278 279 278 279 280 281 281 281 282 283 282 284 284 285 286 285 285 286 285 286 286 286 285 286 287 289 290 291 290 291 291 293 293 293 293 292 292 293
278 279 279 280 281 281 282 282 283 284 285 285 285 286 286 286 286 286 286 286 287 287 285 287 288 290 290 290 290 291 291 292 293 294 293 293 292 291
279 279 280 281 282 282 282 283 284 285 285 286 286 286 286 286 286 287 287 287 287 287 286 287 288 289 290 289 290 290 291 291 292 292 292 293 293 294

GFSNE_850_thetae_039.txt.gz
Theta_e
288 287 287 287 287 286 285 285 285 285 285 285 286 285 286 286 286 286 286 286 287 288 289 288 289 289 290 291 291 292 292 293 294 295 296 297 297 298
287 287 287 286 286 286 285 285 284 285 285 285 285 285 285 286 285 286 286 287 286 287 287 288 288 288 288 289 289 290 291 291 292 294 295 295 296 296
287 287 286 286 286 286 285 285 285 285 285 285 285 285 285 285 285 285 286 286 285 286 287 287 287 287 287 288 288 289 290 290 291 292 293 293 294 295
286 286 286 286 286 286 285 285 285 285 285 285 285 284 285 285 285 286 286 286 285 284 285 285 286 286 287 287 288 288 288 289 290 290 291 291 292 293
286 286 286 286 286 285 285 285 285 285 285 284 284 285 285 285 285 285 284 283 283 283 284 284 285 285 286 287 287 288 288 288 289 289 290 290 291 292
286 286 286 285 284 285 285 285 285 284 284 285 285 285 285 285 283 283 282 283 283 283 284 284 284 285 285 285 285 286 286 287 287 288 288 289 290 290
285 284 284 283 284 285 285 284 284 285 285 285 286 284 284 283 282 282 283 283 284 283 283 283 283 282 283 283 283 284 284 285 286 286 287 288 288 289
284 284 283 284 284 284 284 284 285 286 286 284 284 283 282 282 283 283 284 283 283 283 283 283 282 282 283 283 283 284 285 286 287 287 287 288 289 289
284 283 284 284 283 283 283 284 286 284 284 283 282 282 282 283 284 283 282 282 282 282 282 282 282 282 282 283 283 284 285 285 286 286 287 287 288 289
284 284 284 283 283 284 285 286 284 283 282 282 283 283 284 283 283 283 282 282 282 282 281 281 282 282 282 283 284 284 284 285 286 286 287 288 288 288
284 285 283 283 283 285 285 283 283 282 282 283 283 282 282 282 282 282 282 281 281 281 282 281 282 282 282 283 284 284 285 286 286 286 287 288 288 289
285 283 283 283 284 284 284 283 282 282 284 283 282 282 283 283 283 282 282 280 281 281 284 282 282 282 283 283 284 284 284 286 285 285 286 287 288 288
284 283 282 283 284 283 283 282 282 283 282 281 281 281 282 283 283 283 283 282 281 281 285 283 283 283 283 283 284 285 286 287 287 288 288 287 286 287
283 282 282 283 282 281 281 281 282 282 281 280 280 281 282 283 284 284 284 284 284 284 285 285 284 284 284 284 284 288 288 288 288 289 290 290 288 287
283 282 282 281 280 280 281 281 280 281 280 279 280 282 282 283 284 284 285 285 286 286 286 285 285 285 285 285 286 288 287 289 290 291 290 289 289 289
282 282 280 280 280 281 281 281 281 280 279 280 281 282 283 284 285 285 284 285 285 286 286 286 286 287 287 289 288 288 289 288 291 291 292 291 291 289
282 280 280 280 280 281 281 281 281 281 281 281 282 282 283 284 285 285 285 285 285 285 286 287 288 288 289 290 289 289 290 292 292 293 295 295 293 290
280 280 280 279 279 280 280 280 281 282 282 282 283 283 283 283 284 285 285 285 285 285 285 286 287 289 290 290 289 289 293 292 292 292 293 295 296 294
279 279 279 279 279 280 280 281 281 282 283 283 283 284 283 284 284 285 285 285 285 285 286 287 287 287 287 287 290 290 290 293 292 293 293 293 294 297
279 279 279 279 280 280 281 281 282 283 284 284 284 285 285 284 285 285 286 286 285 286 286 287 288 288 288 289 288 290 290 292 293 292 292 293 294 298
279 279 279 280 280 281 281 282 283 284 284 285 286 286 286 285 286 286 286 286 286 287 286 287 288 289 291 292 290 290 291 291 291 292 293 292 292 296
279 279 279 280 281 282 282 283 284 285 285 285 286 286 286 286 286 286 286 287 287 287 286 286 288 290 291 291 290 290 291 291 292 292 292 292 291 291
279 279 280 281 282 283 283 284 285 286 286 286 286 286 286 286 286 287 287 287 287 287 286 286 289 289 290 291 291 291 291 291 291 291 291 292 293 294

GFSNE_850_thetae_042.txt.gz
Theta_e
288 288 287 287 286 286 286 286 285 285 285 285 285 285 285 285 284 285 285 285 286 287 288 288 289 289 289 290 291 291 291 291 292 293 294 295 296 297
288 287 287 286 286 286 286 285 285 285 285 284 285 285 285 284 284 284 285 285 285 286 287 287 288 288 288 288 289 289 289 290 290 291 292 293 294 296
287 287 286 286 286 286 285 285 284 284 284 284 284 284 284 284 284 285 285 285 284 285 286 286 287 287 287 288 288 289 289 289 290 291 292 292 293 294
287 286 286 286 285 285 284 284 284 284 285 285 284 284 284 285 285 285 284 284 283 283 284 285 286 286 287 287 287 288 288 288 289 289 290 290 292 292
286 285 285 284 284 283 284 284 285 285 284 284 284 284 285 285 284 283 282 282 283 283 283 284 285 285 286 287 287 288 288 288 288 288 289 289 290 291
285 284 284 284 283 284 284 285 285 284 284 284 285 285 285 284 282 282 282 283 283 283 283 283 284 284 285 285 285 285 286 286 286 287 287 288 289 290
284 284 284 283 284 284 285 284 284 284 285 286 285 284 283 282 282 283 282 283 283 283 283 283 283 283 283 283 283 284 284 284 285 286 287 288 288 288
284 284 284 284 284 284 284 284 285 286 285 284 283 282 282 283 283 283 283 282 283 283 283 282 283 283 283 283 284 283 284 285 286 287 287 287 288 289
284 284 284 284 283 283 283 284 286 284 283 283 282 282 283 283 283 282 282 282 282 283 282 282 283 283 284 283 284 284 284 285 286 286 287 287 288 288
284 284 284 283 283 284 285 285 284 283 282 282 283 283 284 283 282 282 282 282 282 283 282 281 283 283 283 284 285 285 284 285 286 286 286 287 288 288
284 284 283 283 283 285 285 284 283 282 282 283 283 282 282 282 282 282 282 281 281 282 285 281 283 282 283 284 285 285 285 285 286 286 287 288 288 288
284 283 283 283 284 284 284 283 282 282 283 283 282 283 283 284 283 283 282 280 280 280 285 281 281 282 283 284 285 286 287 289 288 286 286 287 288 288
283 283 282 282 284 283 283 282 282 283 282 281 282 282 283 283 284 284 284 282 282 281 286 282 282 283 282 283 285 288 288 289 288 289 290 289 287 287
283 282 282 283 282 281 281 281 282 281 282 282 281 282 282 283 284 284 285 285 285 284 286 285 283 284 284 284 284 290 289 289 289 291 291 290 290 289
282 283 282 281 281 281 281 281 281 282 281 280 280 283 283 284 285 285 285 285 286 286 286 286 285 285 285 285 286 289 288 289 291 291 291 291 291 289
282 282 281 280 281 281 282 282 282 282 281 281 282 283 284 285 285 285 284 285 285 286 287 286 287 287 288 290 289 289 289 288 291 292 293 293 291 289
281 280 280 280 280 281 282 282 282 282 282 283 283 283 284 284 285 285 284 285 285 285 287 287 288 289 290 290 289 289 289 290 292 292 293 293 293 290
280 280 280 280 280 281 281 282 282 283 283 283 284 284 284 284 284 285 285 285 285 286 286 286 288 289 290 290 289 290 289 290 292 292 292 293 294 294
280 280 280 279 280 281 281 282 282 283 284 284 284 284 283 284 284 285 285 285 286 286 286 286 288 287 286 287 290 290 290 290 291 292 292 293 295 295
280 279 279 279 280 281 282 282 283 284 285 285 284 284 285 284 285 286 286 285 285 286 286 287 288 288 287 288 288 290 290 290 290 292 292 292 294 297
279 279 279 280 281 281 282 283 284 285 285 285 285 285 285 285 285 286 286 286 286 286 286 286 288 289 290 291 291 291 291 291 290 290 291 293 292 296
279 279 280 281 282 282 283 284 285 285 286 285 286 286 286 286 286 286 286 286 286 286 286 286 289 290 291 290 290 291 291 291 290 290 290 290 290 290
279 280 281 282 282 283 283 284 285 286 286 286 286 286 286 287 287 286 286 286 287 286 285 286 289 289 290 290 290 291 291 291 291 291 291 291 291 292

GFSNE_850_thetae_045.txt.gz
Theta_e
289 289 288 288 287 286 286 286 286 286 286 286 286 285 285 285 285 285 285 286 286 287 287 288 288 288 289 289 290 290 291 291 292 292 293 293 293 295
289 288 288 287 286 286 286 286 285 285 285 285 285 285 285 285 285 285 285 285 285 285 286 287 287 288 288 289 289 289 290 290 290 291 292 293 293 294
288 287 287 286 286 285 284 284 284 284 284 284 284 284 285 285 285 285 285 285 284 285 285 286 286 287 288 288 289 289 289 290 290 290 291 292 293 293
288 287 286 285 284 284 284 284 284 284 284 284 284 284 285 285 285 285 284 283 283 283 284 285 286 286 287 287 288 288 288 289 289 290 290 290 291 292
286 285 285 284 284 284 284 284 284 284 284 284 284 285 285 285 284 283 283 283 283 283 284 284 285 285 286 287 287 288 288 288 288 288 289 289 290 291
285 285 284 284 284 284 285 285 285 284 284 285 285 285 284 284 283 283 283 283 283 283 283 284 284 285 285 285 286 286 286 286 287 287 288 288 288 289
285 284 284 284 284 285 285 285 284 284 285 286 285 284 283 283 283 283 283 283 283 283 283 284 284 284 285 285 285 285 284 285 286 286 287 287 288 288
284 284 284 284 284 284 284 284 285 285 286 285 283 283 283 283 283 283 283 282 283 284 284 283 284 284 285 285 285 285 285 286 286 287 287 287 287 288
284 284 284 284 283 283 283 284 285 284 284 283 283 283 283 283 284 283 283 282 283 283 283 283 285 284 285 285 286 286 286 286 286 287 287 287 287 288
284 284 284 283 283 284 284 285 284 283 282 282 283 283 283 283 282 282 282 282 283 283 282 281 285 284 284 286 288 287 287 285 286 287 287 288 288 288
284 284 283 283 283 284 285 284 283 282 282 283 283 282 282 283 282 282 282 281 282 282 285 282 283 283 284 286 287 287 286 287 288 288 287 287 287 288
284 283 283 283 284 284 284 283 282 282 283 282 282 283 283 284 284 282 282 281 281 280 285 282 282 282 283 284 287 288 289 290 288 288 288 288 288 288
283 283 283 283 284 283 283 282 281 283 282 282 283 284 284 284 284 284 284 282 282 281 286 282 282 284 282 283 287 288 288 290 289 289 291 291 291 290
283 283 283 283 282 281 281 281 282 281 282 283 283 284 284 284 285 285 285 285 284 285 286 285 283 284 284 283 284 288 290 289 288 289 290 291 291 291
283 282 282 281 281 281 281 282 282 282 282 281 281 283 284 285 285 285 285 285 286 286 286 286 286 286 285 284 285 288 289 288 289 289 291 291 292 292
282 282 281 281 281 281 282 282 282 282 281 282 283 284 284 285 285 284 285 285 285 287 287 287 287 286 287 289 288 289 289 289 290 290 292 292 292 291
282 280 280 281 281 281 282 282 283 283 283 284 284 284 284 284 285 285 285 285 285 285 286 287 288 288 289 289 289 289 289 289 290 291 292 293 293 292
280 280 280 280 280 281 282 282 283 283 284 284 284 284 284 284 284 285 285 285 285 286 286 286 287 289 290 291 290 290 290 289 290 292 292 293 294 293
280 280 280 280 281 281 282 282 283 284 284 284 284 284 284 284 284 285 285 285 286 286 286 286 287 287 286 287 290 291 290 290 290 291 292 292 293 292
280 280 280 280 281 282 282 282 283 285 285 285 284 285 285 285 285 285 286 285 285 285 286 285 287 288 288 288 288 291 290 290 290 290 292 293 293 292
280 280 280 281 282 282 282 283 284 285 285 285 286 285 286 286 286 286 286 286 286 286 286 285 288 289 290 291 290 291 291 291 290 290 290 292 292 293
280 280 281 282 282 283 283 284 285 286 286 286 286 286 286 286 286 286 286 286 286 286 286 286 288 289 290 290 290 291 291 292 292 291 290 290 290 290
280 280 282 283 283 283 284 285 285 286 286 286 286 286 286 287 287 287 286 287 286 286 286 286 288 289 290 290 290 290 290 291 290 291 291 291 291 291

GFSNE_850_thetae_048.txt.gz
Theta_e
291 290 290 289 288 288 288 288 288 288 288 289 288 288 287 287 287 287 287 287 287 287 287 288 288 289 289 289 290 291 291 291 292 292 293 293 294 295
290 290 289 288 288 287 287 287 287 287 287 287 287 287 287 286 286 287 287 286 286 287 287 287 288 288 288 289 289 290 290 291 291 292 292 293 293 294
289 289 288 287 287 286 286 286 286 286 286 287 287 286 286 287 287 287 286 286 286 285 286 286 287 287 288 288 289 289 290 290 291 291 292 292 293 293
289 288 287 286 286 286 286 286 286 286 286 286 286 286 286 287 287 286 286 285 285 285 286 286 287 287 287 288 288 289 289 290 290 290 291 291 292 292
288 287 286 285 286 286 286 286 286 286 286 286 286 286 287 287 287 285 285 285 285 285 286 286 286 287 287 287 288 288 288 289 289 289 289 290 290 291
287 286 285 285 286 286 286 286 286 286 286 286 286 286 287 286 285 285 285 285 285 285 285 286 286 286 286 287 287 287 287 287 288 288 288 289 289 289
286 286 285 285 284 285 285 286 285 285 285 286 287 286 285 285 285 285 284 285 285 285 285 285 285 285 286 286 286 286 286 287 287 287 288 288 288 288
286 286 285 285 285 285 285 285 285 285 286 286 285 285 285 284 284 284 284 284 284 285 285 284 285 285 285 285 286 286 286 287 287 287 288 288 288 289
285 285 285 285 285 285 284 285 285 285 286 285 284 284 284 284 284 284 284 283 284 283 284 284 284 285 285 286 286 287 287 288 287 288 288 288 289 289
285 285 285 285 285 285 285 285 285 285 285 284 284 284 284 284 284 283 283 283 284 284 284 284 285 285 285 286 288 289 289 288 287 288 288 288 289 289
285 285 285 285 285 285 285 285 284 284 284 283 284 284 284 283 283 283 283 282 283 283 284 283 285 284 285 287 288 287 287 289 289 288 288 289 289 289
285 285 285 285 284 285 285 284 283 283 283 283 284 283 283 283 283 283 282 282 282 281 284 283 282 283 283 285 287 289 288 289 289 288 289 289 289 289
285 285 285 284 284 284 283 283 283 283 283 283 282 283 283 283 283 283 283 282 282 282 286 282 282 283 282 283 287 290 288 289 289 288 289 289 289 290
284 284 284 284 283 282 282 282 282 282 282 281 281 282 282 284 285 285 285 285 285 284 286 285 283 284 283 283 284 289 291 290 289 289 290 290 290 291
284 283 283 282 281 282 281 282 282 281 281 280 280 282 283 284 285 284 285 285 286 286 286 286 285 285 284 284 285 287 288 290 289 290 290 290 291 291
283 283 282 281 281 281 281 281 281 280 280 280 281 283 284 284 284 284 284 285 285 286 286 286 286 286 286 287 287 289 290 289 290 290 290 291 293 293
282 281 281 280 280 280 280 280 281 281 281 283 283 284 284 284 285 285 284 284 284 284 286 287 286 287 288 289 290 291 289 289 290 290 290 291 293 292
280 280 280 280 280 280 280 281 282 283 283 284 284 284 284 284 284 285 285 285 283 285 284 286 286 288 289 290 290 290 290 289 290 290 290 291 292 291
280 279 279 279 279 279 280 282 283 284 285 285 284 285 284 284 285 285 285 285 285 285 285 285 286 287 287 288 290 291 290 290 290 290 290 291 291 292
280 279 279 279 280 281 282 283 284 285 285 285 285 285 285 284 285 285 285 286 285 285 285 286 286 287 287 287 288 291 291 290 290 290 290 291 292 293
279 279 279 280 282 282 283 283 284 285 285 285 286 285 286 286 286 286 286 286 285 285 284 285 286 288 289 289 289 290 291 290 290 290 290 290 290 290
279 280 281 282 283 283 283 284 285 285 286 286 286 286 286 286 286 286 286 286 286 286 285 285 287 288 289 288 289 290 290 290 291 291 291 290 290 290
280 280 282 283 283 284 284 285 285 286 286 286 286 286 286 286 286 286 286 286 286 286 286 285 287 288 288 288 289 290 290 290 289 289 290 291 291 291

GFSNE_850_thetae_051.txt.gz
Theta_e
293 292 292 291 290 290 289 289 289 289 289 289 289 289 288 288 288 287 287 287 288 289 289 289 289 290 289 290 290 291 292 292 292 293 293 294 294 295
292 291 291 290 289 289 289 288 288 288 288 288 288 288 288 287 287 288 287 288 287 287 288 288 288 289 289 289 290 290 291 291 292 293 293 293 294 295
292 291 290 289 288 288 287 287 287 287 287 287 287 287 287 287 287 287 288 287 287 286 287 288 288 289 289 289 290 290 290 291 291 292 292 293 293 294
291 290 289 288 288 287 287 287 287 287 287 287 287 287 287 287 287 288 288 286 286 286 287 287 288 288 289 289 289 290 290 290 290 291 291 291 292 293
290 289 288 288 287 287 287 286 287 287 287 286 286 286 286 287 288 287 286 286 286 286 286 286 287 287 288 289 289 289 289 289 289 290 290 291 291 291
289 288 288 287 287 286 286 286 286 286 286 286 285 286 287 287 286 286 286 285 285 285 286 286 286 287 287 287 288 288 288 288 289 289 290 290 290 290
288 288 287 287 286 286 286 286 286 286 285 285 286 287 286 286 285 285 285 285 285 286 285 285 285 285 286 286 286 287 287 288 289 289 289 290 290 290
287 287 286 286 286 286 286 286 286 286 287 286 286 286 286 285 284 284 284 285 285 284 285 285 285 285 285 286 286 287 288 288 288 289 290 290 290 290
287 286 286 286 286 286 285 286 285 285 286 286 286 285 285 284 284 285 285 284 284 284 284 284 285 285 285 286 286 287 288 289 288 289 289 289 289 290
286 286 286 286 286 286 286 285 285 285 285 285 285 284 284 285 286 285 284 284 284 284 284 284 284 285 285 285 287 288 289 288 289 289 289 290 290 290
286 286 286 286 285 286 285 285 285 284 284 284 284 284 285 285 285 284 284 283 283 283 284 283 284 284 285 287 287 287 288 290 290 289 289 290 290 290
285 285 285 286 286 286 285 285 284 283 283 283 283 283 283 283 284 284 284 283 283 282 284 283 282 282 282 284 287 289 289 291 290 290 289 289 290 290
285 285 284 285 285 285 285 283 283 283 283 283 283 282 283 284 284 283 283 282 281 281 285 282 281 282 281 282 287 289 289 290 290 290 290 290 290 290
284 284 284 285 285 284 283 282 283 283 282 282 282 282 282 284 284 285 285 284 284 283 285 285 282 282 282 282 283 289 290 291 290 290 290 290 289 290
284 284 284 284 283 282 282 282 282 281 281 281 282 282 283 283 284 285 285 285 285 286 286 285 283 283 283 284 284 286 286 290 290 289 289 289 289 291
283 283 282 282 281 281 281 281 282 281 282 282 282 283 284 284 285 284 284 285 284 286 286 285 284 284 285 286 286 287 290 288 289 290 289 290 290 291
283 282 281 281 281 281 281 282 282 282 282 283 283 283 284 284 285 285 285 284 282 283 285 286 286 284 286 287 287 289 289 289 289 289 289 290 290 291
281 280 280 280 280 280 281 283 283 283 283 283 284 284 284 284 284 285 285 285 282 282 283 284 284 285 286 287 288 289 289 289 289 289 289 290 290 291
280 280 280 280 280 280 281 282 283 284 284 284 284 284 284 284 285 285 285 285 285 283 283 284 285 285 286 286 288 289 289 290 289 289 289 290 290 291
280 279 280 280 280 282 282 282 283 284 285 285 285 285 285 285 285 285 285 284 283 283 284 285 285 286 286 287 287 289 289 289 290 289 289 290 290 290
279 279 280 280 282 282 283 283 284 285 285 285 285 285 286 285 285 286 285 285 283 284 284 285 285 285 287 287 287 288 290 290 289 289 289 290 290 290
279 280 280 282 283 283 283 284 284 285 286 286 286 286 286 286 286 286 286 285 285 285 286 286 285 286 287 287 288 288 289 290 289 289 290 290 290 290
280 280 281 283 283 284 284 284 285 286 286 286 286 287 287 286 286 286 286 286 286 286 286 285 285 286 287 287 288 288 288 288 289 289 289 290 290 291

GFSNE_850_thetae_054.txt.gz
Theta_e
295 295 294 293 292 291 290 289 289 289 288 288 288 288 287 287 287 287 287 286 288 289 289 289 290 290 290 290 291 292 292 292 292 293 293 294 295 295
294 294 293 292 291 290 289 288 288 287 287 287 287 287 287 287 286 287 286 287 287 288 288 289 288 290 290 290 291 291 292 292 292 293 293 294 294 295
294 293 292 291 290 289 288 288 287 287 287 287 287 287 287 286 286 286 286 287 287 287 287 288 289 289 289 290 290 291 291 291 292 292 292 293 293 293
293 291 291 290 289 288 287 287 287 286 286 287 286 286 286 285 286 286 286 285 286 286 287 287 288 288 289 289 289 290 290 290 291 291 292 292 292 293
291 290 290 289 288 287 287 286 286 286 286 286 285 285 285 286 287 286 285 285 285 285 285 286 286 287 287 288 288 289 289 289 290 290 290 291 291 292
290 289 288 288 287 287 286 287 286 286 286 286 286 286 286 286 286 285 285 284 284 284 285 286 286 286 286 286 286 287 287 288 288 289 290 290 291 291
288 288 288 287 287 287 287 287 287 286 286 286 285 285 286 286 285 285 284 284 285 285 285 286 285 285 286 286 286 286 287 288 289 289 290 290 291 291
288 287 286 286 286 286 287 287 287 287 286 285 286 286 285 285 284 284 284 285 285 285 284 284 285 285 285 285 286 286 286 287 289 289 290 290 290 291
286 286 286 286 286 286 286 286 286 286 285 285 285 284 284 284 284 284 286 285 284 284 284 284 285 285 285 285 286 286 287 288 287 289 290 290 290 291
285 285 286 286 286 286 286 286 286 285 285 284 284 284 284 284 285 285 285 284 284 284 283 283 284 284 284 285 286 287 287 287 288 288 288 289 290 290
285 285 285 285 285 286 287 286 285 285 284 283 283 284 284 284 284 284 284 283 283 283 284 282 283 283 284 286 286 286 286 288 289 290 288 288 289 290
285 284 284 285 285 286 286 286 285 284 283 283 283 284 284 283 284 284 282 282 282 282 284 282 282 282 282 283 285 287 288 289 289 290 290 290 290 290
285 284 284 284 285 286 285 285 284 284 284 283 283 283 284 285 285 285 283 281 281 281 286 282 282 282 281 282 285 286 287 289 289 291 291 290 290 289
284 284 284 284 284 284 284 283 283 284 283 282 282 283 284 285 285 285 285 285 284 283 285 284 282 282 282 282 283 285 287 289 289 290 290 289 289 289
283 284 284 283 282 282 282 282 282 282 282 282 282 284 284 284 285 285 285 285 285 286 285 285 283 283 283 283 284 285 286 289 290 289 289 289 289 289
283 283 282 281 281 281 281 282 283 282 282 282 283 284 285 284 285 285 284 284 283 286 286 284 283 283 283 284 284 285 287 286 288 289 289 288 289 289
283 282 281 281 281 281 282 283 283 283 283 284 284 284 284 284 285 285 284 283 282 283 285 286 284 284 284 285 285 287 288 288 288 288 288 288 289 289
281 280 280 280 280 281 282 283 283 283 284 284 284 284 284 284 284 285 284 284 283 284 282 283 284 284 285 285 285 287 287 287 288 288 288 289 289 289
280 280 280 280 280 281 282 282 283 284 284 285 284 285 284 284 284 285 285 284 284 284 283 284 285 285 285 285 286 286 287 288 288 288 288 289 289 290
280 279 280 280 281 282 283 283 284 284 285 285 285 285 285 285 285 284 284 284 283 283 284 285 285 285 285 286 286 287 288 288 288 288 288 289 289 289
280 280 280 281 282 283 283 283 284 285 285 285 285 285 285 284 284 284 284 285 285 285 285 285 285 285 285 286 286 287 288 289 288 288 289 289 289 289
280 280 281 282 283 283 284 284 285 285 286 286 285 285 285 285 285 285 286 286 286 285 285 285 285 285 286 286 287 287 288 289 289 289 289 290 290 290
280 281 282 283 284 284 284 285 285 286 286 286 285 285 285 285 286 286 286 286 285 285 285 285 285 286 287 287 287 288 288 289 289 289 290 290 290 290

GFSNE_850_thetae_057.txt.gz
Theta_e
297 296 295 294 293 292 291 290 289 289 288 288 288 287 287 286 286 286 286 285 287 288 289 290 290 290 290 291 292 292 292 292 293 293 294 294 295 296
296 295 294 293 292 291 290 289 288 288 287 287 287 286 286 286 285 285 285 286 286 286 288 288 289 289 290 290 291 291 292 292 292 293 293 294 294 295
295 294 293 292 291 290 289 289 288 287 287 286 286 286 285 285 285 285 286 286 285 285 286 287 288 288 289 290 290 290 291 291 291 292 293 293 293 294
294 293 292 291 290 289 288 288 287 286 286 286 286 286 286 285 285 285 285 285 285 285 286 286 287 287 288 289 289 289 290 290 290 290 291 291 292 293
293 292 291 289 289 288 287 287 287 287 286 286 286 286 286 285 285 285 285 284 285 284 285 286 286 286 287 287 288 288 288 288 288 289 290 290 291 291
291 290 288 288 288 287 287 287 287 287 287 286 286 286 285 285 285 285 284 284 285 285 285 286 285 286 286 286 286 286 286 286 287 288 289 290 290 291
289 288 287 287 286 286 287 287 287 287 287 287 286 285 285 285 284 284 284 284 285 285 285 285 285 286 286 286 286 286 286 286 288 288 289 289 290 291
288 287 286 286 286 286 286 287 287 287 287 286 286 285 284 284 284 284 284 285 284 285 285 284 285 285 286 285 285 285 286 285 287 288 288 289 289 291
287 286 285 285 285 285 285 286 286 286 286 286 285 284 284 283 283 284 285 285 284 284 284 284 285 285 285 285 286 286 286 286 286 287 288 289 289 289
285 285 285 284 284 285 286 286 286 286 285 285 284 284 284 284 285 285 284 284 284 285 284 282 284 285 285 285 286 286 286 286 286 287 287 287 288 289
285 285 284 284 284 286 286 286 286 285 284 284 284 284 284 284 283 283 283 283 282 283 285 282 284 283 284 285 286 286 285 286 287 288 289 287 288 289
285 284 284 284 285 286 286 286 285 284 284 284 284 284 284 284 284 284 283 282 282 281 284 282 282 282 282 282 284 285 286 287 288 288 289 290 290 289
283 283 283 283 285 285 285 284 283 284 284 284 283 284 285 285 285 285 284 283 282 282 285 282 281 282 281 281 284 285 286 287 288 289 290 290 290 289
283 283 284 284 284 283 283 282 283 283 283 283 284 284 284 285 285 285 285 285 284 285 285 284 282 282 282 282 282 284 285 287 287 289 289 289 289 289
283 283 283 282 281 281 281 281 282 283 283 283 283 284 284 285 285 285 285 285 285 286 285 285 283 283 282 282 283 284 284 286 288 288 288 289 289 288
283 283 282 281 281 281 282 283 283 283 283 283 284 284 285 285 285 285 284 284 284 285 285 285 284 283 283 283 284 283 285 284 287 287 288 287 288 288
283 281 281 281 281 282 283 283 284 284 284 284 284 284 285 285 285 285 284 284 283 284 285 285 285 285 285 284 284 285 285 286 287 287 286 287 288 288
281 280 280 280 281 282 283 284 284 284 284 284 285 285 284 284 284 284 284 283 283 284 284 285 285 285 285 284 284 285 285 286 287 287 286 286 287 288
280 280 280 281 281 282 283 283 284 284 284 285 285 285 285 284 283 284 284 283 284 284 285 285 284 284 283 283 285 285 286 286 287 287 287 287 287 288
280 280 281 281 282 283 283 284 284 285 285 285 285 285 285 284 284 284 284 284 284 284 284 285 284 284 284 285 285 287 288 287 287 288 288 288 288 289
280 281 281 282 283 284 284 284 284 285 285 286 285 285 285 285 285 285 285 285 285 285 285 285 284 285 285 285 285 287 289 289 288 288 288 288 289 289
280 281 282 283 284 284 284 285 285 286 286 286 286 286 285 285 285 285 285 285 285 285 285 284 285 285 286 286 286 287 288 289 289 289 289 289 289 289
281 281 283 284 284 284 285 285 286 286 286 286 287 286 286 286 285 285 285 285 285 285 284 285 286 287 288 287 287 287 288 288 289 290 290 290 290 290

GFSNE_850_thetae_060.txt.gz
Theta_e
299 300 297 296 295 294 293 292 290 289 289 290 289 288 287 287 286 286 286 286 286 286 288 288 289 290 290 291 292 292 292 292 293 293 294 295 295 296
297 296 296 295 294 293 292 291 289 289 288 288 288 287 287 286 286 286 286 285 285 286 286 288 288 289 290 290 290 291 291 292 292 293 293 294 295 295
296 295 294 294 293 292 291 290 289 288 287 287 287 287 286 286 286 286 285 285 285 286 286 287 287 288 288 289 290 290 290 291 291 292 292 293 294 294
295 294 293 293 292 290 289 289 288 287 287 287 287 286 286 286 285 285 285 284 284 285 285 286 287 287 287 288 289 289 289 290 290 290 290 291 292 292
294 293 292 291 290 289 288 288 287 287 287 287 286 286 286 285 285 284 284 283 284 285 285 285 286 286 286 287 287 287 287 288 288 288 289 289 290 291
293 290 290 289 288 288 287 286 287 287 287 287 286 286 286 285 284 284 283 284 284 285 285 285 286 285 286 286 286 286 286 286 286 287 288 289 289 290
290 289 289 288 287 286 286 287 287 287 287 287 287 286 286 285 284 283 283 284 284 285 285 285 285 285 287 286 286 286 286 285 287 288 288 288 289 289
289 288 287 286 286 285 285 285 286 287 287 287 286 286 285 284 283 283 284 285 284 285 284 284 285 285 286 286 286 286 285 285 286 286 288 288 288 289
288 287 286 285 285 285 284 285 286 286 286 286 285 285 284 283 284 284 285 284 283 284 284 283 285 286 286 286 286 286 286 286 285 286 287 288 288 288
286 285 285 285 284 284 286 286 286 286 285 285 284 284 284 284 285 285 284 283 283 284 285 282 285 285 285 286 286 286 286 286 285 286 286 286 287 288
286 285 284 284 284 285 286 286 285 285 284 283 284 284 284 284 283 283 283 283 283 284 285 283 284 283 284 285 286 286 286 285 285 286 286 286 286 287
285 284 284 283 284 285 286 285 284 283 283 284 284 284 284 284 284 284 284 282 282 281 283 283 282 282 282 282 284 286 286 286 286 286 286 287 288 287
284 284 284 284 284 284 284 283 282 283 283 283 283 284 285 285 285 285 285 284 283 283 285 282 282 282 280 282 283 286 285 286 286 287 287 288 288 288
283 284 284 284 283 282 281 281 282 282 283 284 284 285 285 285 285 285 285 285 284 284 285 284 282 283 282 281 282 285 285 285 286 287 287 288 288 288
284 284 283 282 281 281 281 282 283 283 284 284 284 285 285 285 285 285 285 285 285 285 285 285 283 283 282 282 282 284 284 286 286 286 286 286 287 287
283 283 281 281 281 281 282 284 284 284 283 284 284 285 285 285 285 285 284 284 283 285 285 285 284 284 283 283 283 284 285 282 285 286 286 286 287 287
282 281 281 281 281 282 284 284 284 284 284 285 285 285 285 285 285 284 284 284 283 284 285 285 285 284 284 284 284 285 285 285 286 286 286 286 286 287
281 281 281 281 281 283 284 284 284 285 285 285 285 285 285 284 284 284 284 284 284 284 285 285 285 284 284 284 284 285 285 285 286 286 286 285 286 288
280 281 281 281 282 283 284 284 285 285 285 285 286 285 285 285 285 285 284 284 284 284 284 285 284 284 283 282 285 284 285 286 287 287 287 287 286 287
280 280 281 281 283 283 284 284 285 285 285 286 286 286 286 286 285 285 285 284 284 284 284 285 285 285 284 284 284 287 287 286 286 287 287 287 288 288
280 281 281 283 283 284 284 285 285 285 286 286 286 286 286 286 286 285 285 285 285 285 285 285 286 286 286 286 285 287 288 288 287 287 287 287 288 289
280 281 282 283 284 284 285 285 285 286 286 286 287 286 286 286 286 285 285 285 285 285 285 285 286 287 287 286 286 286 287 288 289 290 290 289 289 288
281 282 283 284 284 285 285 285 286 286 286 287 287 286 286 286 285 285 285 285 285 285 285 286 286 287 287 287 286 287 287 288 289 290 290 290 290 290

GFSNE_850_thetae_063.txt.gz
Theta_e
304 302 299 297 297 296 295 294 293 291 291 292 291 290 289 288 287 287 287 286 286 286 285 287 288 289 290 290 291 292 292 293 293 293 294 295 296 296
300 301 300 297 296 295 294 293 291 290 289 290 290 288 287 287 287 286 286 286 285 285 285 286 288 289 289 290 290 291 291 292 292 293 294 294 295 295
302 298 296 295 295 294 293 291 290 289 288 288 287 287 287 287 287 287 286 286 285 285 285 286 287 288 289 289 289 290 290 291 291 292 292 293 293 294
296 295 295 295 294 292 291 290 289 288 287 287 287 287 286 286 286 286 285 285 284 284 285 286 286 287 287 288 288 289 289 289 290 290 290 291 292 292
297 294 295 293 292 290 289 289 288 287 287 287 287 286 286 286 286 285 285 284 283 285 286 286 286 286 286 287 288 288 288 288 288 288 289 289 290 291
294 293 292 291 290 289 288 287 287 287 287 286 286 287 286 286 285 285 284 283 284 285 286 285 286 285 286 286 286 286 286 286 286 287 287 288 289 289
292 291 290 289 288 287 286 286 286 286 286 286 287 286 286 286 285 284 283 284 284 285 286 285 285 285 286 286 286 286 286 286 286 287 288 288 288 289
290 289 288 287 287 286 285 285 285 286 287 286 286 286 286 285 284 283 284 285 284 284 284 284 285 285 286 286 286 286 286 286 286 287 287 287 288 288
288 288 287 286 286 285 284 284 285 285 286 286 285 285 284 283 284 285 285 284 283 284 284 284 285 286 286 286 286 286 286 286 286 286 287 287 287 288
288 287 286 286 285 284 284 285 286 285 285 284 284 283 284 284 285 284 283 283 283 284 284 284 285 285 285 285 286 286 286 286 286 286 286 287 286 287
286 285 284 285 284 285 286 286 285 284 283 283 283 283 284 284 284 283 284 283 283 284 284 283 285 283 284 284 284 285 285 285 285 285 285 285 285 286
285 284 284 284 284 285 286 284 283 282 283 283 284 285 285 285 285 284 284 283 283 282 283 282 282 281 282 282 283 284 285 285 286 285 285 285 284 285
285 284 284 284 284 284 283 282 281 283 283 283 284 284 285 285 285 285 285 284 284 283 285 282 282 280 280 281 283 284 284 285 285 286 286 286 285 285
284 284 284 283 282 282 281 281 281 283 284 284 284 285 285 285 285 286 285 285 284 284 285 284 282 282 282 281 282 284 285 285 285 286 286 286 286 286
283 283 282 282 282 281 281 282 283 284 284 284 285 285 285 285 286 285 285 285 285 285 285 285 284 284 283 282 282 284 284 285 285 286 285 286 286 286
283 282 282 281 281 281 282 283 284 284 284 284 285 285 286 286 285 285 285 285 284 285 285 285 285 284 283 283 283 284 285 283 286 286 286 285 286 287
282 281 282 281 282 282 284 284 284 284 285 285 285 286 286 286 286 286 285 285 284 284 285 285 285 284 284 284 284 285 285 286 286 286 285 286 287 287
281 281 281 281 281 283 284 284 285 285 285 285 286 286 286 286 286 286 285 285 285 285 285 285 285 285 285 285 284 285 286 286 286 286 285 284 284 287
280 280 280 281 282 283 284 284 285 285 285 285 286 286 286 286 285 286 285 285 285 285 285 285 284 284 282 282 286 284 284 285 286 286 286 286 286 288
280 280 281 281 283 284 284 285 285 285 285 286 286 286 286 285 285 285 285 285 284 284 285 285 285 285 284 284 284 288 287 286 286 286 286 287 287 288
280 280 281 283 283 284 284 285 285 285 285 286 286 286 286 285 285 285 284 284 284 285 285 285 286 286 286 286 285 287 289 288 287 287 287 287 287 288
280 281 282 283 284 284 285 285 285 286 286 286 286 286 286 285 285 285 285 284 285 285 285 285 286 287 287 286 286 287 288 289 290 289 289 289 288 288
281 282 283 283 284 285 285 285 285 286 286 286 286 286 286 286 286 286 285 285 285 285 285 286 287 287 287 287 286 287 288 289 290 290 290 289 289 289

GFSNE_850_thetae_066.txt.gz
Theta_e
312 307 300 302 299 302 304 297 295 294 294 294 293 292 290 289 289 288 287 287 287 286 286 286 287 288 289 290 291 291 292 293 293 294 294 295 295 296
304 301 299 302 299 299 298 295 294 293 291 292 291 290 289 288 288 287 287 287 286 286 285 285 286 288 289 290 290 290 291 291 292 292 293 294 295 295
297 297 300 300 296 295 294 293 292 291 290 289 289 289 288 288 287 287 287 286 286 286 285 285 286 287 288 289 289 290 290 290 291 292 292 293 293 294
298 300 298 298 296 293 293 292 290 289 288 288 287 287 287 287 286 287 286 286 285 285 285 285 286 286 287 287 288 289 289 289 290 290 290 291 291 292
295 295 298 300 298 293 290 290 289 288 287 287 287 286 286 286 286 286 285 285 284 284 286 286 286 286 286 287 287 288 287 288 288 289 289 289 290 290
301 302 302 292 291 290 289 288 287 287 286 286 285 286 286 286 286 285 284 283 284 285 287 286 286 286 286 286 286 286 286 286 286 287 288 289 289 289
302 301 297 290 289 289 288 287 286 286 285 285 286 286 286 285 285 284 283 284 285 285 286 285 286 286 287 287 286 286 286 286 286 287 288 288 288 289
298 293 288 287 288 287 286 285 285 285 286 286 286 286 285 285 283 283 284 284 283 284 284 285 285 286 287 286 286 286 286 286 286 287 287 287 287 288
289 288 288 287 287 286 285 285 285 285 286 286 285 284 283 283 284 284 284 283 283 284 284 285 285 286 286 286 286 286 286 286 285 286 287 288 288 288
288 287 287 286 285 285 285 286 286 286 285 284 283 282 283 284 284 283 283 284 284 285 284 284 286 285 285 285 285 286 286 286 285 286 286 287 287 287
287 286 285 285 285 285 286 286 285 284 282 282 282 283 284 284 284 284 285 284 285 285 285 283 284 283 284 284 284 284 285 285 285 285 285 285 285 286
285 285 284 284 284 285 285 284 283 282 282 283 284 285 285 285 285 285 285 284 284 282 284 282 283 282 281 282 283 284 285 285 285 285 285 285 285 285
284 284 284 284 284 283 282 282 281 283 283 283 284 285 285 286 286 285 285 285 284 284 285 282 282 282 280 282 283 284 284 285 285 286 286 286 285 285
284 284 284 283 282 281 281 281 281 282 284 284 284 285 285 286 286 286 285 285 285 285 285 284 283 283 282 282 283 284 284 285 285 286 286 286 285 285
283 283 282 282 282 282 281 282 283 284 284 284 285 285 285 286 286 286 286 286 286 286 286 285 284 284 283 283 283 284 284 286 286 286 286 286 286 286
282 282 281 281 281 281 282 283 284 284 284 285 285 285 286 286 286 286 286 286 286 287 286 285 285 284 284 284 284 284 286 284 287 287 286 286 286 286
282 281 281 281 281 282 284 284 284 285 285 285 285 286 286 286 286 286 286 285 285 285 286 286 286 285 285 284 285 286 286 286 286 286 285 286 287 287
281 281 281 281 281 283 284 285 285 285 285 285 285 286 286 286 286 286 285 285 285 285 285 286 286 286 285 284 284 285 285 285 286 286 285 284 286 288
280 280 280 281 282 284 284 284 285 285 285 285 285 286 286 285 285 286 285 285 285 285 285 285 285 284 283 283 285 285 285 286 286 286 286 286 286 288
280 280 281 282 283 284 284 285 285 286 286 286 286 286 285 285 286 286 286 285 285 285 285 286 286 285 284 285 285 289 288 286 287 286 287 288 288 288
280 280 282 283 283 284 285 285 285 286 285 286 286 286 286 284 285 286 286 286 286 285 285 285 286 286 286 286 286 288 289 288 288 288 288 288 288 289
280 281 282 283 283 284 285 285 286 286 286 286 286 286 286 286 286 286 286 286 286 286 286 285 286 286 286 285 286 287 289 290 290 290 289 289 289 288
280 282 283 283 284 284 285 285 285 286 286 286 286 286 286 286 286 286 286 286 286 286 286 285 285 286 286 286 287 289 290 290 290 290 291 289 289 289

GFSNE_850_thetae_069.txt.gz
Theta_e
320 318 315 310 303 306 301 302 300 302 296 295 294 295 292 291 290 289 288 288 288 287 287 287 287 288 289 289 290 291 292 293 293 294 294 295 295 296
317 311 301 300 300 298 298 298 296 294 293 294 293 292 290 289 288 288 288 287 287 287 287 286 286 287 288 289 289 290 291 291 292 292 293 294 295 295
307 301 299 299 296 297 296 295 297 300 299 293 290 290 289 288 288 288 287 287 287 287 286 285 285 287 288 288 289 289 290 291 291 291 292 293 293 294
301 298 297 297 299 297 300 298 296 291 291 289 289 288 288 287 287 287 287 286 286 285 285 286 287 287 287 287 288 288 289 289 290 290 291 291 292 292
297 298 300 301 300 299 296 295 293 289 288 287 287 287 286 287 286 286 286 285 285 286 287 287 287 286 286 287 287 287 287 287 288 288 289 289 290 291
301 300 300 300 300 299 293 289 288 287 287 286 286 286 286 286 286 285 285 284 285 287 287 287 287 287 287 286 286 287 287 287 286 287 287 288 289 289
299 300 299 299 292 287 287 287 286 286 286 285 286 286 286 286 285 284 283 284 285 287 287 286 287 287 287 287 287 287 286 286 286 286 288 288 288 288
299 300 292 289 287 286 286 285 285 285 286 286 286 286 285 284 283 283 284 284 284 286 285 284 286 286 287 286 286 286 287 286 286 286 287 287 287 288
291 288 287 286 286 286 285 285 285 285 286 286 285 284 283 283 283 284 284 284 284 286 285 284 286 286 286 286 286 286 286 286 286 286 286 287 287 287
287 287 286 286 285 285 285 286 286 286 285 284 282 282 283 284 284 283 284 284 284 286 285 283 286 285 285 286 286 286 286 285 285 285 286 287 287 286
286 285 286 286 285 285 286 286 285 284 283 282 282 283 284 285 284 284 285 284 285 286 286 284 285 284 285 286 286 285 285 285 285 285 285 285 285 285
285 286 286 285 284 285 285 283 282 282 283 283 285 286 285 285 285 285 285 285 285 284 285 283 285 283 282 284 284 285 286 286 286 286 285 285 285 284
285 285 284 284 283 282 282 282 282 283 283 285 285 285 285 286 286 286 286 285 285 285 286 283 283 284 282 283 285 285 285 286 286 286 287 286 286 285
284 283 283 282 282 282 282 282 282 283 284 285 285 285 286 286 286 286 286 286 285 285 286 285 284 284 283 283 284 286 286 286 286 287 287 286 286 286
283 283 282 282 282 282 282 282 283 284 284 285 285 286 286 286 286 286 286 286 286 286 286 286 285 284 284 284 284 286 286 287 287 287 286 286 286 286
283 282 281 281 281 281 282 283 284 284 285 285 285 286 286 286 286 286 286 286 286 287 286 286 285 285 285 285 285 286 287 284 287 286 286 286 286 286
282 281 281 281 281 282 284 284 285 285 285 285 286 286 286 286 286 286 286 286 285 285 286 286 286 286 286 285 285 286 286 286 286 287 286 287 287 287
281 281 280 281 281 283 284 285 285 285 285 286 286 285 286 286 286 286 286 286 286 286 286 286 286 286 285 284 285 285 286 286 287 287 286 285 287 288
280 280 280 281 283 284 285 285 285 285 286 286 286 286 286 286 285 286 286 286 286 286 286 286 285 285 283 284 285 286 286 287 287 288 288 288 287 289
280 280 281 283 284 284 285 285 286 286 286 286 286 286 286 286 286 286 286 286 286 285 286 286 286 285 284 285 285 289 288 288 288 288 289 289 289 289
280 280 282 283 284 284 285 285 285 286 285 285 286 286 286 286 286 285 285 286 285 285 285 286 286 285 285 285 285 287 289 289 289 288 289 289 289 289
280 280 282 283 284 284 285 285 286 286 286 286 286 286 286 286 286 285 285 285 285 285 286 286 285 285 285 285 286 287 289 290 290 290 290 290 289 288
280 280 282 283 284 284 285 285 285 286 286 285 286 286 286 286 285 285 285 285 285 285 286 286 286 285 285 285 285 286 288 289 290 291 292 291 290 290

GFSNE_850_thetae_072.txt.gz
Theta_e
326 325 321 320 317 314 307 305 297 299 301 301 298 298 293 291 291 291 291 289 289 289 289 288 288 288 287 289 290 291 291 292 293 293 294 295 296 296
322 317 317 316 313 310 305 301 300 301 298 295 294 297 297 299 294 289 288 288 288 288 288 287 287 286 287 289 290 290 291 291 292 293 294 294 295 295
317 313 309 300 303 301 300 300 300 297 298 300 300 297 294 290 289 288 287 287 287 287 287 286 286 287 288 288 289 289 290 291 291 292 292 293 294 295
313 311 307 302 298 299 299 301 301 299 300 301 293 288 288 288 288 287 288 287 287 287 286 286 288 288 288 288 288 288 289 289 290 291 291 291 292 292
308 302 300 299 299 301 302 301 300 298 293 289 288 287 287 287 287 287 287 286 286 286 287 288 288 288 288 288 288 287 288 288 288 288 289 289 290 291
301 299 299 301 301 300 299 295 291 288 287 286 286 287 288 288 288 287 287 286 286 287 287 288 288 289 289 288 288 288 288 287 287 287 287 288 288 289
301 301 301 301 300 299 294 288 287 286 286 286 288 289 288 288 287 286 285 286 286 287 287 287 287 287 288 288 288 288 287 287 287 287 287 288 289 289
300 299 299 300 291 288 287 286 285 285 288 288 287 288 288 287 285 285 285 286 286 287 286 286 286 286 287 287 288 288 287 287 286 286 287 287 287 288
298 295 289 288 287 286 286 285 285 285 286 286 287 286 285 285 284 284 285 284 284 285 285 285 287 286 286 286 287 288 287 287 286 286 286 287 287 288
288 288 287 287 286 285 285 286 286 286 286 284 284 283 284 284 285 285 285 284 285 286 285 285 286 285 286 286 287 287 287 287 286 286 286 286 286 287
287 286 286 285 285 285 287 286 285 284 283 283 283 283 284 285 285 284 285 285 285 287 286 285 286 285 286 287 287 286 287 287 286 286 286 285 285 286
286 285 285 284 284 284 284 283 283 283 283 284 284 285 285 285 285 286 286 286 285 284 286 284 285 284 283 286 286 286 287 287 286 287 287 287 286 285
285 284 284 284 283 283 282 282 282 282 283 284 285 285 286 286 286 286 286 286 285 286 287 283 283 284 282 282 285 286 287 287 286 287 286 287 287 286
284 283 283 283 283 283 282 282 282 283 285 285 285 286 286 286 286 286 286 286 286 286 286 285 284 285 284 284 285 287 287 287 287 287 286 286 286 286
283 283 283 282 282 282 282 282 283 285 285 285 286 286 286 286 287 287 287 287 286 287 286 286 285 285 285 285 285 287 286 287 287 287 287 286 286 286
283 282 282 282 282 282 282 284 285 285 285 285 286 286 286 286 287 286 287 287 287 287 287 286 286 285 285 286 285 286 287 284 287 287 287 287 287 287
282 282 281 281 281 282 284 284 285 285 285 286 286 286 286 286 286 286 286 286 286 286 287 287 286 285 285 285 287 286 286 286 287 287 286 286 288 288
281 281 281 281 282 284 284 285 285 285 286 286 286 286 286 286 286 286 286 285 285 286 286 286 286 286 285 285 285 286 285 285 286 286 286 286 288 289
281 280 280 281 283 284 285 285 285 286 286 286 286 286 286 286 286 286 285 284 284 285 285 285 285 284 285 285 286 286 286 286 287 288 289 288 288 291
281 280 281 282 284 284 285 285 286 286 286 286 286 286 286 285 286 285 284 284 285 284 284 285 285 285 285 285 285 286 286 287 287 288 289 289 290 291
281 280 281 283 284 284 285 285 285 286 286 286 286 286 286 285 285 284 284 285 285 285 285 285 286 285 286 286 286 286 287 287 287 287 288 288 289 290
281 281 281 283 284 284 285 285 286 286 286 286 286 285 285 285 284 285 284 285 285 285 285 286 286 286 286 286 286 286 287 288 288 288 288 288 289 288
281 281 281 282 284 284 284 285 285 286 286 286 286 285 285 285 285 285 285 284 285 285 285 285 286 286 287 287 286 286 286 287 288 288 290 289 289 289

GFSNE_850_thetae_075.txt.gz
Theta_e
323 323 323 322 320 316 315 309 311 308 308 306 303 300 300 301 299 299 298 299 301 296 290 290 289 289 289 288 288 289 291 292 293 294 294 295 296 296
324 324 322 319 315 314 312 308 307 303 301 302 303 302 299 299 302 301 302 298 290 289 289 289 288 288 287 287 289 291 291 292 292 293 294 295 295 296
320 320 319 319 310 311 309 306 306 307 304 301 300 300 301 300 300 296 290 289 288 288 288 288 287 286 287 289 289 290 290 291 291 292 293 293 294 294
317 316 313 311 309 306 304 303 303 303 300 300 300 300 299 292 290 288 288 288 288 288 287 287 287 288 289 289 289 289 289 290 290 290 291 291 292 292
310 309 308 306 304 301 301 300 301 301 300 299 292 289 288 288 288 288 288 288 288 287 286 287 288 288 289 289 289 288 288 288 288 288 289 289 290 290
303 300 299 299 299 301 301 300 299 298 293 289 288 287 288 289 289 289 288 288 286 286 287 288 288 288 288 288 289 289 288 288 288 287 288 288 289 289
297 297 298 299 300 299 299 296 290 288 287 287 287 289 290 289 289 288 287 286 286 286 287 288 287 288 288 289 288 288 288 288 288 288 288 289 289 289
299 299 300 299 299 295 288 287 287 287 286 288 289 287 288 288 287 286 285 284 286 287 287 288 288 288 288 288 288 288 288 287 287 287 287 287 288 288
299 299 297 290 289 288 287 287 286 286 286 286 287 287 287 286 285 284 285 285 286 287 286 286 288 287 288 288 288 288 288 288 287 287 287 287 287 288
291 288 288 287 287 286 286 286 287 286 286 286 285 284 283 283 284 285 285 285 286 287 286 286 288 287 288 288 288 288 288 288 288 288 287 286 287 287
288 287 287 286 286 285 285 286 285 285 284 284 283 283 284 285 285 285 286 285 285 287 287 286 287 285 287 288 288 288 287 287 287 287 287 286 286 287
286 286 285 285 285 284 284 284 284 284 283 284 284 285 285 286 286 286 286 285 285 285 286 285 286 285 284 287 287 287 288 288 287 287 287 286 286 287
285 285 284 284 284 283 283 283 283 282 283 284 285 286 286 286 286 286 285 285 285 286 287 283 285 285 284 284 287 287 287 288 288 287 287 287 287 286
284 284 284 283 283 283 282 282 282 283 284 285 286 286 286 287 287 286 286 286 286 286 287 286 285 285 284 285 285 287 287 287 287 287 287 287 287 287
284 283 283 283 282 282 282 282 283 285 285 286 286 287 287 287 287 287 287 287 287 287 287 286 285 285 285 285 286 286 286 287 287 287 287 287 287 287
283 283 282 282 282 282 282 283 285 285 286 286 287 287 287 287 287 287 287 287 287 288 287 286 285 284 284 284 284 286 286 284 287 287 286 287 287 288
282 282 282 281 281 282 283 285 285 286 286 286 286 287 287 287 287 286 286 286 286 286 286 286 285 283 284 284 285 286 286 286 286 286 286 286 287 288
282 282 281 281 281 283 284 285 286 286 286 286 286 286 286 286 286 286 286 285 284 284 285 285 284 284 285 285 285 286 286 286 286 286 286 286 288 290
282 281 281 281 282 284 285 285 286 286 286 286 286 286 286 286 286 286 285 285 284 283 283 284 284 285 285 285 285 286 286 286 287 287 286 286 287 290
281 281 281 281 283 284 285 285 285 286 286 286 286 286 286 285 285 285 283 284 284 283 284 284 284 285 285 285 286 286 287 287 287 287 287 287 288 289
281 281 281 281 282 284 284 285 285 285 285 286 286 286 286 285 285 283 283 284 283 283 284 285 285 285 285 286 286 286 287 287 287 287 287 286 287 289
281 281 281 281 281 283 284 284 285 285 285 286 286 285 285 285 285 284 283 283 284 284 284 285 285 285 286 286 287 287 287 287 287 287 287 287 287 287
281 281 281 281 281 282 284 284 285 285 285 286 286 285 285 285 285 284 284 284 285 285 285 285 285 286 286 287 286 286 286 287 287 287 288 288 288 288

GFSNE_850_thetae_078.txt.gz
Theta_e
326 325 324 322 321 321 320 318 313 310 308 309 311 309 306 307 308 303 301 297 298 299 302 301 293 290 289 289 289 289 289 291 293 294 294 295 296 297
324 324 322 321 321 320 317 313 310 310 309 308 309 309 308 306 301 299 296 300 301 300 291 289 289 288 288 288 288 289 291 292 293 293 294 295 296 296
320 319 319 318 316 314 311 310 309 307 308 305 306 303 301 299 299 299 300 296 290 289 289 289 288 288 288 288 289 290 291 291 292 292 293 294 294 294
316 315 314 312 311 308 307 305 305 304 302 301 302 300 300 300 296 291 289 288 289 289 288 288 287 288 289 289 290 290 290 290 291 291 292 292 292 293
312 309 308 307 306 304 302 303 300 302 301 301 299 296 291 289 288 289 289 289 289 288 287 286 286 288 289 289 289 290 290 290 290 291 290 290 290 290
309 306 304 302 298 300 300 300 299 299 299 295 290 288 288 289 289 288 289 289 288 286 286 287 288 289 289 289 289 288 288 288 289 289 289 289 290 290
301 300 299 299 299 299 299 298 295 290 288 287 287 289 289 288 289 288 288 287 286 285 288 289 288 289 289 289 289 288 288 288 289 289 289 290 290 290
299 300 299 297 298 296 290 289 288 286 286 286 286 287 287 288 288 287 285 284 286 287 287 290 288 289 289 289 288 288 288 288 288 289 289 289 289 289
299 299 299 298 293 289 287 287 286 287 287 287 287 286 286 285 284 284 284 286 287 287 286 288 288 288 289 288 288 288 288 288 288 288 288 288 288 289
292 289 287 287 287 287 286 286 287 286 286 286 285 284 284 283 283 284 286 286 286 287 286 287 288 288 289 289 288 288 288 288 287 287 287 287 288 288
288 287 287 287 286 285 286 285 285 285 284 284 283 284 284 286 286 286 286 286 287 288 287 287 287 286 288 290 289 288 288 287 287 288 288 287 287 287
287 287 286 285 285 285 284 284 284 283 283 283 284 285 286 286 286 286 286 286 285 286 286 286 287 285 285 288 288 288 288 288 288 288 288 288 286 286
286 285 285 285 284 284 283 283 283 283 283 283 285 286 286 286 286 286 286 285 286 286 286 283 284 285 283 285 288 288 288 288 288 288 287 287 287 286
285 284 284 283 283 283 283 283 283 283 284 286 286 286 286 287 287 287 287 286 286 286 287 286 283 285 284 284 285 287 288 287 287 288 287 287 287 287
284 284 283 283 283 282 282 282 282 284 286 286 286 287 287 287 287 287 287 287 287 287 287 286 284 284 283 283 283 284 285 287 287 286 287 287 287 288
284 283 283 283 282 282 282 282 284 285 286 286 287 287 287 287 287 287 287 287 287 287 286 284 283 283 283 283 284 285 286 284 286 287 287 287 287 288
283 283 282 282 281 281 282 284 285 286 286 286 287 287 287 287 287 287 287 287 286 286 285 285 283 283 284 284 285 285 285 286 286 286 286 286 287 288
283 283 282 281 281 282 284 285 286 286 287 287 287 287 287 287 287 287 286 286 285 285 283 284 283 283 284 285 285 285 285 285 286 287 287 287 287 288
283 282 282 281 281 283 285 286 286 286 287 287 287 287 287 287 286 286 285 284 284 283 283 283 284 284 284 284 285 285 285 286 286 286 287 287 287 288
283 282 281 281 281 282 284 285 286 286 286 287 287 287 286 286 286 286 285 283 282 283 283 284 284 284 284 284 285 286 286 286 286 287 287 287 287 288
282 281 281 281 281 281 283 284 285 285 286 286 286 286 286 285 285 285 284 283 283 283 284 284 285 285 285 284 285 285 286 286 286 286 286 287 287 287
282 281 281 281 281 281 281 283 284 284 285 285 285 286 285 285 285 285 285 284 284 285 285 285 285 285 285 284 285 285 286 286 286 286 286 287 287 287
281 281 281 281 281 281 281 281 282 284 284 284 285 285 285 285 285 284 284 284 284 285 285 285 285 285 285 285 285 286 285 286 286 286 287 287 287 288

GFSNE_850_thetae_081.txt.gz
Theta_e
324 325 326 325 325 325 323 321 317 315 313 311 308 308 309 309 310 307 305 302 301 298 296 297 299 297 291 291 290 290 290 290 293 294 295 296 297 297
321 321 325 324 324 321 320 317 314 312 309 309 310 310 309 307 305 302 302 301 299 297 297 295 290 289 289 289 289 289 290 292 293 294 295 295 296 296
319 322 322 321 320 318 316 313 311 309 308 307 306 306 305 302 300 300 300 299 298 292 289 289 288 288 288 289 289 291 291 292 292 293 293 294 294 294
316 316 316 316 315 313 311 309 308 306 305 306 304 299 300 300 300 297 293 289 289 289 289 288 288 287 287 289 290 290 291 292 292 292 292 292 293 293
312 312 312 311 309 306 305 305 303 303 302 302 299 299 297 293 289 288 289 289 289 289 288 287 286 286 288 289 290 290 289 289 290 290 290 290 290 291
309 309 307 305 304 303 302 302 301 300 299 298 294 290 290 290 289 288 289 289 288 287 286 286 288 289 289 288 288 288 288 288 288 289 290 290 290 291
306 304 301 301 301 301 300 300 299 295 290 290 288 288 288 288 288 288 288 287 286 285 288 288 289 289 289 288 288 288 288 288 289 289 290 290 290 290
301 300 300 300 300 299 299 297 294 291 287 287 287 286 287 287 287 286 285 284 286 287 288 289 288 289 289 289 289 288 288 288 288 289 289 289 289 290
300 299 299 299 295 290 287 287 286 287 287 287 287 286 286 285 284 284 284 285 286 287 288 290 289 289 289 289 289 289 288 288 287 288 288 289 289 289
293 290 289 288 287 287 287 286 287 286 286 286 285 284 284 284 284 285 286 286 287 287 287 288 288 290 290 289 289 288 288 288 287 287 287 287 287 288
288 288 287 287 286 285 285 285 285 284 284 284 284 283 284 285 286 286 286 287 288 288 287 287 287 289 289 290 289 288 288 287 287 287 287 288 288 287
288 287 286 285 285 284 285 284 284 284 283 283 283 284 285 286 286 286 287 287 287 287 287 286 286 285 286 288 288 289 288 288 287 287 287 288 288 288
286 286 285 285 284 284 284 284 283 283 283 283 284 286 286 286 287 287 287 287 286 286 286 284 285 284 282 284 288 289 288 288 288 288 287 287 287 287
285 285 284 284 284 283 283 282 282 282 283 285 286 286 287 287 288 288 287 287 287 287 287 286 284 283 282 282 283 288 288 287 287 287 287 287 287 287
285 284 284 283 283 282 282 282 282 283 285 286 287 287 287 288 288 288 288 288 288 287 287 286 284 282 282 283 283 285 286 287 287 286 287 287 287 288
284 284 284 283 283 282 282 282 283 285 286 286 287 287 288 288 288 288 288 288 288 288 287 286 285 283 284 284 284 285 285 283 286 287 286 287 287 287
284 283 283 283 282 281 282 283 284 285 286 286 287 288 288 288 288 288 288 287 287 288 288 287 285 284 284 284 284 285 285 285 286 286 286 286 287 287
284 283 283 282 282 281 282 284 285 286 286 287 287 287 288 288 288 288 287 286 286 287 286 286 285 285 285 286 286 285 284 285 285 286 286 286 287 287
284 283 282 282 281 281 282 285 286 286 286 286 287 287 287 287 287 287 286 285 286 286 286 285 285 284 284 284 287 286 284 285 286 286 286 286 286 287
283 283 282 282 281 281 281 283 285 286 286 286 286 286 286 286 286 286 285 285 284 285 285 285 285 285 284 284 283 288 286 285 286 285 286 286 286 287
283 282 282 282 281 281 281 281 283 284 285 285 285 285 285 285 285 285 284 284 284 284 285 285 285 285 285 285 284 284 286 285 285 285 285 285 286 286
283 282 282 281 281 281 281 281 281 282 283 284 284 284 285 285 285 284 284 284 284 284 285 285 285 285 285 285 284 284 284 286 286 286 286 286 285 285
283 282 282 281 281 281 281 281 281 281 282 283 283 284 284 285 285 284 284 284 284 284 284 284 285 285 285 285 284 284 284 285 285 285 285 286 286 286

GFSNE_850_thetae_084.txt.gz
Theta_e
322 322 322 322 324 322 322 322 320 316 316 316 314 311 310 308 304 304 306 302 301 301 300 300 299 298 297 295 293 292 294 294 293 294 295 296 297 298
320 320 320 320 320 318 320 320 317 317 313 312 311 309 308 308 306 307 304 302 301 300 298 298 295 293 291 289 290 291 292 292 293 294 295 296 296 296
318 317 317 319 319 318 318 315 315 313 312 311 308 307 306 305 303 303 301 299 299 298 294 289 288 288 289 290 291 291 292 292 292 293 294 294 294 295
315 315 315 315 314 313 313 312 311 310 307 306 305 303 302 301 302 301 299 294 290 289 289 289 289 288 287 287 287 290 291 292 292 292 293 293 293 294
311 311 311 311 311 310 310 309 307 306 304 303 303 302 301 299 296 293 291 290 289 289 289 288 287 286 286 287 289 289 290 290 289 289 289 290 291 291
309 309 309 309 308 307 305 304 303 302 302 301 299 294 296 295 293 290 289 288 288 288 287 286 287 288 288 289 289 288 288 288 288 288 289 290 291 291
308 308 306 305 303 302 302 302 301 300 300 297 295 292 288 289 288 288 288 287 286 285 286 288 288 289 289 289 289 288 288 288 288 289 289 290 291 291
303 302 302 301 301 301 300 300 298 293 289 287 287 287 287 287 287 286 286 285 285 287 288 290 289 289 289 289 289 289 289 289 288 288 288 288 290 290
301 301 300 300 299 295 291 289 288 287 287 287 287 287 286 286 285 284 284 284 286 287 288 290 289 290 289 289 289 289 288 288 288 287 288 288 289 289
295 293 292 291 289 288 288 287 287 287 286 286 286 285 284 284 284 284 286 287 287 288 288 289 289 290 290 289 289 289 288 288 287 287 287 288 288 287
289 289 288 288 287 287 286 286 285 285 284 284 284 284 283 284 285 286 287 287 287 287 288 288 289 290 290 290 289 289 288 288 288 287 287 287 288 288
288 288 287 286 286 285 285 285 284 284 283 283 283 283 283 285 286 287 287 287 287 287 287 287 288 287 288 289 289 289 288 288 288 287 287 287 287 287
287 286 286 286 285 284 284 283 283 283 283 283 283 284 286 286 286 287 287 287 287 287 287 286 287 285 283 287 289 289 288 288 287 287 287 287 287 286
286 286 285 285 284 284 283 283 283 283 282 283 285 286 286 287 287 287 288 288 287 288 287 286 286 286 284 285 286 288 288 288 287 287 287 287 287 287
285 285 285 284 284 283 283 282 282 282 283 285 286 286 287 287 288 288 288 288 288 288 287 286 286 286 284 284 285 287 287 288 287 286 287 287 287 288
285 285 284 284 283 283 282 282 282 283 284 286 286 287 287 288 288 288 288 288 288 288 287 286 286 285 285 284 284 286 287 285 287 286 286 286 286 287
285 284 284 283 283 282 282 282 283 284 285 286 287 287 287 288 288 288 288 288 288 288 288 287 285 285 285 284 285 286 286 286 286 286 286 287 287 287
285 284 284 283 283 282 282 282 283 285 286 286 287 287 287 287 287 288 287 287 287 287 287 286 286 286 286 287 286 285 285 286 286 285 286 286 286 287
285 284 283 283 283 282 282 282 283 285 286 286 286 286 286 287 287 287 286 286 286 286 286 286 285 285 284 285 286 285 284 285 285 286 285 285 285 286
285 284 283 283 282 282 282 281 282 284 285 286 286 286 286 286 286 286 286 286 286 286 286 286 285 284 284 284 284 287 286 284 284 285 286 285 285 286
285 284 283 283 282 282 281 281 281 281 282 284 285 285 285 285 285 285 285 285 284 284 284 285 285 284 284 284 284 286 287 285 284 285 285 285 285 285
285 285 284 283 282 282 281 281 281 281 281 281 282 283 284 284 284 285 285 284 285 284 284 285 285 285 284 284 284 285 285 286 285 286 286 285 285 285
285 285 284 283 282 282 282 281 281 281 281 281 281 281 282 283 283 284 284 284 284 284 284 284 284 284 284 284 285 284 284 284 285 285 286 285 285 285

GFSNE_850_thetae_087.txt.gz
Theta_e
321 321 321 321 320 320 320 320 321 318 317 317 316 315 314 313 311 306 304 301 302 302 301 300 301 300 299 299 299 298 295 295 295 295 295 296 297 298
318 318 318 319 318 321 319 317 318 318 315 313 313 312 311 309 307 305 305 303 302 301 299 301 300 299 299 296 293 293 293 293 293 295 295 296 297 297
316 317 317 316 316 316 317 316 317 315 314 312 311 310 308 306 305 304 303 302 301 300 300 298 294 291 289 290 290 289 291 292 292 293 294 295 295 295
315 314 314 314 313 313 312 312 311 310 311 310 309 308 306 304 303 302 301 300 298 294 291 290 290 289 289 288 287 287 289 292 293 292 292 292 294 294
311 311 310 310 310 310 309 309 309 309 308 306 305 304 303 302 301 300 298 295 292 292 289 289 288 288 287 286 287 288 288 289 289 289 289 289 289 291
308 308 308 309 309 308 307 307 306 304 304 303 303 302 299 296 297 296 292 290 289 288 288 287 286 286 288 288 288 288 288 288 289 289 289 289 290 291
307 308 307 307 307 305 304 303 303 302 301 300 299 297 295 291 289 288 288 288 287 287 286 287 287 288 288 289 289 289 289 289 289 289 289 289 290 291
306 306 305 304 303 302 302 301 300 297 294 292 289 288 288 287 287 287 287 286 286 286 288 289 289 289 289 289 289 289 290 289 289 289 289 289 290 289
303 303 302 301 300 298 294 290 289 289 288 288 288 287 287 287 286 285 285 284 285 287 289 290 290 290 290 289 290 290 289 289 289 289 289 289 289 288
300 297 294 291 290 289 289 288 288 287 287 287 286 286 285 285 284 284 284 286 288 288 289 289 290 290 290 290 290 290 289 288 288 288 288 288 288 288
290 289 289 289 288 288 287 286 286 286 285 285 285 284 284 284 284 285 287 287 288 289 289 289 290 290 290 289 289 289 288 288 288 288 288 288 288 288
289 288 288 287 286 286 286 286 285 285 284 284 284 284 283 283 284 286 287 287 287 287 288 288 289 288 289 289 288 287 288 288 288 287 287 288 288 287
287 287 287 286 286 285 285 285 284 284 284 283 283 283 283 285 286 286 287 287 287 287 287 286 288 287 286 287 290 289 288 288 288 288 287 287 287 286
287 286 286 286 285 285 284 284 283 283 283 283 283 284 285 286 287 287 287 288 288 288 288 287 287 287 285 286 287 289 289 288 288 288 286 286 286 286
286 286 286 285 285 284 284 283 283 282 282 283 284 285 286 287 287 288 288 288 288 288 287 287 286 286 285 285 285 288 287 288 288 288 286 286 286 287
286 286 286 285 284 284 283 283 282 282 283 283 285 286 287 287 287 288 288 288 288 288 287 286 286 285 285 286 285 287 287 285 287 287 286 286 287 287
286 286 285 285 284 283 283 282 283 283 283 285 286 286 287 287 288 288 288 288 288 288 288 287 285 285 285 285 285 287 286 286 286 286 286 286 288 287
286 286 285 284 284 283 283 282 282 283 283 285 286 286 287 287 287 287 287 287 287 287 287 287 286 286 286 287 287 287 286 286 286 286 285 285 287 287
286 286 285 284 283 283 283 282 282 282 283 285 286 286 286 287 286 287 286 286 286 286 286 286 285 285 284 284 286 285 285 285 285 286 285 286 285 287
286 286 286 284 284 283 283 282 282 282 282 282 284 285 286 286 286 285 285 285 285 286 286 286 285 284 283 284 284 287 286 285 285 285 286 285 286 286
286 286 286 285 284 284 283 282 282 282 281 281 281 282 283 284 284 284 284 283 284 284 284 285 285 284 284 284 283 286 287 286 285 284 285 284 285 285
286 286 286 286 285 284 283 283 282 282 281 281 281 281 281 280 281 282 282 283 284 284 284 285 285 284 284 284 284 285 286 287 286 285 285 285 284 284
286 286 286 285 285 285 284 283 283 282 282 281 281 281 280 280 280 280 281 282 283 283 284 284 284 284 284 284 284 284 284 285 285 286 286 286 285 285

GFSNE_850_thetae_090.txt.gz
Theta_e
323 322 322 320 319 320 321 321 320 320 319 317 316 316 315 315 314 312 311 308 308 303 302 302 302 302 301 300 300 300 299 297 297 296 295 296 297 299
319 320 319 317 316 317 317 317 318 318 316 314 314 313 313 311 310 310 309 307 305 303 303 303 303 301 300 300 299 297 292 292 293 294 295 296 296 297
321 319 317 316 316 315 315 315 315 314 314 312 311 310 309 309 308 308 307 305 304 303 302 301 300 298 294 290 290 289 289 289 290 293 293 295 295 295
320 318 316 314 313 313 312 312 311 311 310 309 309 308 307 306 306 304 303 302 302 301 299 295 294 292 290 289 288 288 287 287 288 289 290 290 291 292
316 313 311 312 311 310 309 309 308 308 308 308 308 306 305 304 303 301 300 299 299 297 293 290 289 289 288 287 287 288 288 289 290 290 289 289 289 290
310 310 309 308 308 308 308 307 307 307 306 305 305 304 303 301 298 296 297 295 291 289 288 288 287 286 286 287 289 289 290 290 290 290 289 290 290 290
308 307 307 307 307 306 306 305 304 304 303 303 302 300 298 296 293 290 288 288 288 288 287 286 287 288 288 289 289 289 289 289 289 289 289 289 290 290
305 306 306 306 305 304 303 303 302 301 299 295 292 289 288 288 288 287 287 287 286 286 286 288 289 289 289 289 289 289 290 289 289 289 289 289 289 289
304 304 303 303 302 301 299 296 292 290 289 288 288 288 287 287 287 286 286 285 285 286 288 290 290 289 289 289 290 290 290 289 289 289 289 289 288 288
303 302 300 296 292 290 289 289 288 288 287 287 286 286 286 285 285 285 285 285 286 288 288 289 290 290 290 290 290 290 290 289 289 289 289 289 289 289
294 291 290 290 289 288 288 287 286 286 286 285 285 285 284 284 284 284 285 287 288 288 288 289 290 290 290 290 289 289 289 288 288 288 288 288 288 288
289 289 289 288 288 287 287 286 286 285 285 284 284 284 283 283 283 284 286 287 287 288 289 288 289 289 289 289 289 289 288 287 287 288 288 288 288 287
288 288 288 287 287 286 286 285 285 284 284 284 284 283 283 283 284 286 287 287 288 288 288 288 289 289 288 289 291 290 290 289 289 288 288 288 287 286
288 288 287 287 286 286 285 285 284 284 283 283 283 283 284 285 286 287 287 288 288 289 288 288 288 288 287 287 289 290 290 290 289 288 288 287 287 286
287 287 287 287 286 286 285 284 284 283 283 283 283 283 285 286 287 287 288 288 288 288 288 288 287 287 287 287 287 289 289 290 289 287 287 287 287 287
287 287 286 286 286 285 284 284 283 283 283 283 283 284 286 287 287 288 288 288 289 288 287 287 286 286 287 287 286 288 288 286 288 287 286 287 287 287
287 287 287 287 286 285 284 284 283 283 283 283 284 285 286 287 287 288 288 288 288 288 288 286 285 285 286 286 286 288 287 287 287 286 286 287 287 287
287 287 287 286 286 285 284 284 283 283 282 283 283 285 286 286 287 287 287 287 287 287 287 287 286 285 286 287 287 287 286 287 286 286 286 286 287 288
287 287 287 286 286 285 285 284 283 283 283 282 282 283 285 286 286 286 286 286 286 286 286 285 285 284 284 285 288 286 285 286 285 286 285 285 286 287
287 287 287 287 286 286 285 284 284 283 283 282 282 282 281 282 284 284 285 284 284 284 285 285 285 284 283 283 283 288 286 285 285 285 285 285 286 286
287 287 287 287 286 286 285 285 284 283 283 282 282 281 281 281 281 281 281 281 281 282 282 284 284 283 283 282 283 285 286 285 285 284 285 285 285 285
287 287 287 287 286 286 286 286 285 284 283 282 282 281 281 281 281 281 280 280 280 280 281 282 284 284 283 283 283 284 285 286 285 285 284 284 284 284
288 287 286 286 286 286 286 286 285 285 284 283 282 281 281 281 281 280 280 280 280 280 281 282 283 283 283 283 283 283 284 284 285 285 286 285 285 285

GFSNE_850_thetae_093.txt.gz
Theta_e
326 325 323 322 322 320 319 318 318 320 319 318 317 316 315 315 314 314 312 311 309 309 308 305 304 304 305 303 304 303 302 301 301 300 296 296 297 298
327 326 323 319 319 318 315 316 317 317 317 315 314 314 313 312 312 310 309 308 308 308 306 305 305 304 303 301 301 300 299 296 291 292 294 296 296 297
327 324 321 319 318 316 315 314 314 314 314 313 312 311 310 309 309 308 306 307 307 307 305 304 303 301 300 297 295 293 291 290 289 289 290 293 294 295
320 320 320 319 317 315 313 313 312 312 310 310 309 308 308 307 307 306 305 305 304 303 302 302 299 295 295 291 289 289 288 288 288 289 289 290 291 292
319 319 317 316 314 312 311 310 310 308 308 308 308 307 307 306 304 303 303 303 302 300 299 295 291 289 289 288 287 287 288 289 290 290 290 289 289 290
314 314 312 311 310 310 309 308 308 307 307 307 306 305 304 304 303 300 298 298 295 291 289 288 288 287 287 287 287 289 290 290 290 290 290 290 290 290
310 309 308 308 308 307 307 306 306 306 305 304 303 302 301 299 297 295 291 289 288 288 287 287 287 287 288 289 290 290 290 290 290 290 290 290 290 290
307 306 306 307 307 306 306 305 304 303 302 299 295 293 291 289 288 288 288 287 286 286 286 286 288 289 290 290 290 290 290 290 290 290 290 290 289 289
305 306 306 305 305 304 303 301 297 293 290 290 289 288 288 288 287 287 286 286 285 285 286 289 290 289 290 290 290 290 290 290 290 290 290 289 290 290
303 303 303 302 300 294 291 290 289 289 288 288 287 287 286 286 286 285 285 285 285 287 288 290 290 290 290 290 290 290 290 290 289 289 289 289 289 289
302 300 294 291 290 289 289 288 288 288 287 287 286 286 285 285 285 284 284 285 287 288 289 289 290 290 290 290 290 290 290 289 289 288 288 288 289 289
291 290 289 289 288 288 288 288 287 287 286 286 285 284 284 284 284 284 285 287 288 288 289 289 289 290 290 290 289 289 289 289 289 288 289 289 289 289
289 289 289 288 288 288 287 287 287 286 285 285 284 284 284 284 284 285 287 287 288 288 288 289 289 289 289 289 290 289 289 289 289 289 289 289 288 287
288 288 288 288 287 287 286 286 286 285 285 284 284 284 284 284 285 286 287 288 288 288 288 288 289 288 288 289 290 291 290 290 289 289 287 287 287 287
288 288 287 287 286 286 286 286 285 285 285 284 284 284 284 285 286 287 288 288 288 288 288 288 288 288 288 288 289 290 289 290 289 288 287 287 286 287
287 287 287 287 286 286 286 285 285 285 284 284 284 284 284 285 287 287 288 288 288 288 287 287 287 287 288 288 287 289 288 287 289 288 287 287 287 287
287 287 287 287 287 286 286 285 285 285 284 284 284 284 284 286 287 287 287 288 288 288 288 286 285 286 287 287 287 288 287 287 287 287 286 286 287 287
287 287 287 287 287 286 286 286 285 285 284 284 283 283 283 284 286 286 286 287 287 287 287 286 286 285 285 287 287 287 287 287 286 286 286 285 287 287
287 287 287 287 287 287 287 286 286 285 285 284 283 283 282 282 282 284 285 286 286 286 286 285 284 283 283 284 286 285 285 286 285 286 286 286 286 287
287 287 287 287 287 287 287 287 286 286 285 284 284 283 282 282 282 282 282 281 282 282 283 283 283 281 281 282 282 286 285 284 285 285 285 285 286 286
288 287 287 287 287 287 287 287 286 286 286 285 284 284 283 282 282 281 281 281 280 280 280 281 281 280 281 282 282 285 286 285 284 284 284 284 285 286
288 288 287 286 286 287 286 286 286 286 286 286 285 284 283 282 282 281 281 281 281 280 281 281 281 281 281 282 283 283 284 285 284 284 284 284 284 283
288 288 288 287 286 286 286 286 286 286 286 285 285 285 284 283 282 282 281 281 281 281 281 281 281 281 282 283 282 282 283 283 284 284 285 284 285 285

GFSNE_850_thetae_096.txt.gz
Theta_e
327 329 329 327 324 323 321 321 320 319 317 318 319 318 317 315 315 314 313 313 312 310 309 308 308 307 306 304 305 305 304 304 303 302 300 295 297 298
330 330 328 326 324 321 319 317 316 316 317 317 316 316 314 314 312 312 311 310 308 308 308 307 306 305 305 305 304 303 302 300 296 292 291 293 296 296
325 327 327 325 324 320 318 317 316 314 314 315 314 313 312 311 310 309 309 307 306 307 307 306 305 304 304 303 301 299 296 292 290 289 290 294 294 296
320 324 324 323 322 319 318 316 314 313 313 313 311 310 309 308 308 307 307 306 305 305 305 304 303 302 300 298 294 290 290 289 288 288 289 290 291 292
322 321 322 320 319 318 315 313 312 311 310 309 308 308 307 307 307 305 304 304 304 304 302 301 300 296 292 290 289 288 288 288 289 290 291 291 290 290
318 317 317 317 315 313 311 310 309 309 308 307 307 306 306 306 304 304 303 302 301 299 294 290 289 289 288 288 288 288 289 290 290 290 290 290 290 290
315 314 313 311 310 309 309 308 308 307 307 306 305 304 304 303 302 301 298 294 290 289 289 288 288 288 288 288 290 291 290 290 290 291 290 290 290 290
309 309 309 308 308 307 307 306 306 305 305 304 303 301 298 295 292 290 289 288 288 288 287 287 287 288 290 291 291 290 291 291 290 290 290 290 290 290
307 306 306 306 306 306 305 305 304 302 299 294 291 290 289 289 289 288 287 287 286 286 286 287 289 290 290 290 291 291 291 290 290 290 290 290 290 290
305 305 305 304 304 303 301 296 292 291 290 289 289 288 288 287 287 286 286 286 286 286 287 289 290 290 290 290 291 290 290 291 290 290 289 289 289 289
303 302 302 301 298 291 290 290 290 289 289 288 288 287 287 286 286 285 285 285 286 287 288 289 289 290 290 290 290 290 290 290 290 290 290 290 290 291
301 299 293 290 290 289 289 289 289 288 288 287 287 286 286 286 285 285 285 285 287 287 289 289 289 289 290 290 290 290 290 290 290 290 289 290 290 290
292 290 289 289 288 288 289 288 288 287 287 286 286 285 285 285 285 285 285 287 288 288 288 288 289 289 289 289 289 289 289 289 289 289 290 290 290 289
289 289 289 288 288 288 288 288 287 286 286 286 285 285 285 285 285 285 287 287 288 288 288 289 289 289 288 289 290 290 290 290 289 289 289 289 288 289
288 288 288 288 288 288 288 287 287 286 286 285 285 285 284 285 285 286 287 288 288 288 288 289 289 288 288 288 289 289 289 289 288 288 288 288 288 288
288 288 288 288 288 287 287 287 286 286 285 285 285 285 285 285 285 287 287 288 288 288 288 288 288 288 288 287 287 289 288 287 288 287 287 288 288 288
287 287 288 288 288 288 287 287 286 286 286 285 285 285 285 285 285 286 287 287 287 288 287 287 286 286 286 286 286 287 287 287 287 287 287 287 288 287
287 287 287 288 288 287 287 287 286 286 286 285 285 285 284 284 284 284 285 286 286 286 286 286 285 285 285 285 286 286 286 286 286 286 285 285 288 287
287 287 287 287 287 287 287 287 287 286 286 286 285 285 284 284 283 283 283 283 283 283 284 284 284 284 283 282 283 283 284 285 284 284 284 284 285 287
288 287 287 287 287 287 287 287 287 287 286 286 285 285 284 284 283 283 283 282 282 282 282 282 282 281 280 280 280 282 283 283 283 284 284 284 285 286
288 288 287 287 287 287 287 287 287 287 286 286 285 285 284 284 284 283 283 282 282 282 282 282 281 280 280 280 281 283 284 283 283 283 283 283 284 285
288 288 288 288 287 286 287 287 287 286 286 286 286 285 285 284 284 283 283 283 282 282 282 282 282 282 281 281 282 283 284 284 283 283 283 283 283 283
288 288 288 288 287 287 286 286 286 286 286 286 286 285 285 285 284 284 284 284 283 283 282 282 282 282 282 282 283 283 283 283 283 283 284 284 284 284

GFSNE_850_thetae_099.txt.gz
Theta_e
330 330 330 329 329 329 329 324 322 321 319 319 317 316 318 317 316 314 314 313 313 313 312 311 310 309 309 309 308 307 306 306 305 304 303 301 297 297
321 326 327 326 326 328 325 324 320 318 317 316 315 316 316 316 314 313 312 312 311 310 309 308 308 308 307 306 306 306 306 304 301 298 296 293 291 295
314 327 319 324 326 326 325 323 319 317 317 316 314 314 314 314 312 311 309 308 308 308 308 307 308 307 306 305 304 304 301 298 295 292 291 290 290 292
316 324 321 323 324 322 322 320 319 317 315 314 313 313 312 311 309 308 307 307 308 306 306 305 305 304 304 303 303 300 293 290 290 289 289 289 289 291
317 321 322 320 323 322 320 319 317 315 313 312 311 310 309 308 307 307 307 305 305 304 305 304 303 302 301 295 291 290 289 289 288 289 290 291 291 290
318 319 318 319 318 319 318 316 314 312 310 309 309 308 307 306 306 306 304 304 303 302 301 298 293 291 290 290 289 289 288 289 290 291 291 290 291 291
314 314 316 317 316 315 313 311 310 309 308 307 307 306 306 305 304 304 301 300 297 292 290 289 290 289 289 288 288 289 291 291 291 291 291 291 291 291
310 311 311 312 311 310 309 308 308 307 306 306 305 304 303 303 302 298 294 290 289 289 289 288 288 288 288 289 291 291 291 291 291 291 290 290 290 290
307 307 307 307 307 307 307 306 306 305 304 304 302 298 295 292 291 289 289 288 288 287 287 287 288 289 290 291 291 291 291 291 291 290 290 290 290 290
306 306 306 305 305 305 304 304 304 302 299 294 291 290 290 289 289 288 287 287 286 286 287 287 289 290 291 291 291 291 291 291 291 290 290 290 291 290
305 304 304 304 303 303 300 295 292 290 290 289 289 289 288 288 287 287 286 286 286 287 288 289 290 291 290 291 291 291 291 290 291 290 290 290 290 290
303 303 302 301 299 293 290 290 289 289 289 289 288 288 287 287 286 286 286 286 286 288 289 289 290 290 291 291 291 291 290 290 290 290 290 290 290 291
301 301 297 291 289 289 289 289 289 288 288 288 287 287 286 287 286 286 286 286 287 288 289 289 290 290 290 290 291 290 290 290 290 290 290 290 290 290
296 292 289 288 288 288 288 288 288 288 287 287 287 286 286 286 286 286 286 287 288 288 289 289 289 289 289 289 290 290 290 290 289 290 289 289 289 289
289 288 288 288 288 288 288 288 287 287 287 287 286 286 286 286 286 286 286 288 288 289 289 289 289 289 289 289 289 290 290 290 289 288 288 288 288 288
288 287 287 288 288 288 288 287 287 287 287 286 287 287 286 286 286 286 287 288 288 289 289 289 289 288 288 288 288 289 289 287 288 287 287 287 288 287
287 287 287 287 288 288 288 288 287 287 287 287 287 286 286 286 286 286 286 287 287 288 288 288 288 288 287 287 287 288 287 287 286 286 286 286 287 287
287 287 287 287 288 288 288 288 288 288 288 287 287 286 286 286 285 285 285 285 285 286 286 286 285 285 285 285 285 285 285 284 284 284 284 284 286 287
288 287 287 287 287 288 288 288 288 288 287 287 287 286 286 286 285 285 285 285 285 284 283 283 283 282 282 282 283 282 283 283 282 283 284 284 284 286
288 288 288 287 287 287 287 288 287 288 287 287 287 287 287 286 286 286 285 284 284 284 283 283 282 282 282 282 281 284 282 282 283 284 284 284 284 285
288 288 288 288 287 287 287 287 287 287 287 287 287 287 287 286 286 285 285 284 284 284 284 284 283 282 281 281 282 285 285 284 283 283 283 283 284 284
289 289 289 288 288 288 287 286 287 287 287 287 286 286 286 286 286 286 285 284 284 284 284 284 283 282 282 282 284 284 286 286 284 283 283 283 283 282
289 289 289 288 288 288 287 287 287 287 286 286 286 286 286 286 286 286 285 285 284 284 284 284 284 284 284 284 284 284 285 285 284 284 284 284 283 284

GFSNE_850_thetae_102.txt.gz
Theta_e
325 328 329 329 329 331 327 326 326 325 323 320 319 318 316 315 317 316 315 314 313 313 313 312 312 312 312 311 310 309 308 308 307 306 305 305 303 299
325 327 330 326 326 326 325 325 324 325 323 319 318 316 315 315 315 314 313 313 312 312 311 310 309 308 308 307 308 307 307 306 306 303 302 301 296 292
315 314 319 320 323 326 323 326 324 324 321 318 317 316 314 312 313 313 311 310 309 308 308 308 308 307 308 307 306 305 304 304 302 298 294 291 290 290
311 311 313 314 321 323 322 320 319 323 318 317 316 315 312 310 312 311 309 307 307 307 307 306 306 305 305 304 303 303 302 296 292 290 290 290 289 289
312 313 312 321 319 317 320 320 321 321 318 316 315 313 311 310 309 308 307 307 306 305 305 304 304 304 303 301 296 292 290 290 290 289 289 290 291 291
312 313 316 317 318 318 320 319 318 317 316 314 312 310 309 308 307 306 306 305 304 303 303 301 300 295 291 290 290 289 289 289 289 290 291 291 291 291
311 312 314 316 316 316 316 317 316 314 313 310 309 308 308 307 306 306 305 303 302 300 294 291 290 290 289 289 289 289 289 290 291 291 291 291 291 291
308 310 311 312 312 314 314 313 311 309 308 308 308 307 306 306 305 304 302 299 294 290 290 289 289 288 288 288 289 291 291 291 291 291 291 291 291 291
306 308 308 309 309 309 309 309 308 307 306 306 305 305 305 304 300 295 292 290 289 289 288 288 288 288 289 290 291 291 291 291 291 291 291 291 291 291
305 306 306 306 306 306 305 306 306 306 305 304 303 301 295 292 290 290 289 289 288 288 287 287 288 289 290 291 291 291 291 291 291 291 290 290 291 291
304 305 304 304 304 304 304 304 304 303 300 296 291 290 290 289 289 289 288 288 287 287 288 288 289 291 291 291 291 291 291 291 291 290 291 290 290 291
303 303 303 303 303 302 301 297 292 290 290 290 289 289 289 288 288 288 288 287 286 287 288 289 290 290 291 291 291 291 291 291 290 290 290 290 290 291
301 302 302 301 299 295 291 289 289 289 289 289 288 288 288 287 288 287 287 287 286 286 289 290 290 290 290 291 291 290 290 290 290 290 290 290 290 290
300 299 298 293 289 289 288 289 289 288 288 288 288 288 288 288 287 287 287 286 286 287 289 289 289 290 290 291 291 291 290 290 290 290 289 289 289 289
297 293 289 289 288 288 288 288 288 288 288 288 288 287 287 287 287 287 286 287 288 288 289 289 289 289 289 290 290 290 290 290 289 289 288 288 288 288
289 288 288 288 288 288 288 288 288 287 288 288 287 287 287 287 287 287 287 287 288 289 289 289 289 289 289 289 289 289 288 288 288 287 286 287 287 286
288 287 287 287 287 288 288 288 287 288 288 287 287 287 287 287 287 287 287 287 287 288 288 288 288 288 288 288 288 287 286 286 285 284 284 285 285 285
288 287 287 287 287 287 288 288 288 288 287 287 287 287 287 287 287 287 287 286 287 286 286 286 285 285 285 286 285 286 285 284 284 284 283 283 286 286
288 287 287 287 287 287 288 288 288 287 287 288 287 287 287 287 287 287 287 286 286 286 286 285 284 284 284 285 286 284 285 284 283 284 284 284 285 286
288 288 288 288 288 287 287 288 288 288 288 288 287 287 287 287 287 287 286 286 286 286 286 285 284 283 283 283 284 286 283 283 283 284 285 286 286 286
288 288 288 288 288 288 287 287 287 287 287 287 287 287 287 287 288 287 286 286 286 286 286 285 283 283 283 283 284 286 286 284 284 285 285 284 285 286
289 289 289 288 288 288 288 288 287 287 287 287 287 287 287 287 287 287 286 286 286 285 285 285 284 283 282 282 284 284 286 286 286 285 284 283 283 283
295 290 289 289 288 288 288 288 288 288 287 287 287 287 286 286 286 286 286 286 286 285 285 285 284 283 284 284 284 285 286 286 285 285 285 284 283 283

GFSNE_850_thetae_105.txt.gz
Theta_e
323 324 324 324 324 326 328 328 327 326 325 323 324 323 319 317 316 315 316 316 314 313 313 312 313 313 314 313 313 311 310 309 308 307 307 306 305 304
325 326 326 323 321 323 325 326 326 326 324 323 321 320 318 316 315 314 314 312 312 312 311 311 311 311 310 309 308 307 307 307 306 306 305 304 302 298
326 325 322 317 315 320 323 320 322 322 321 323 322 320 317 316 314 311 312 312 311 310 309 308 308 308 308 307 307 307 306 305 304 304 303 296 292 290
315 313 312 311 311 313 315 320 322 319 321 320 320 319 317 315 312 309 310 310 309 307 307 307 307 307 306 306 305 305 304 303 302 295 291 290 290 289
311 311 311 311 312 312 315 319 321 320 319 319 319 318 316 314 310 310 309 309 307 306 306 305 305 305 304 303 303 302 297 292 291 290 290 290 291 291
311 311 311 312 312 315 318 317 317 318 317 319 316 315 314 311 309 309 308 306 305 305 303 303 303 302 300 296 292 290 290 289 289 289 290 292 291 291
309 310 310 311 312 314 316 317 317 317 316 315 314 313 311 309 308 308 306 305 304 303 301 299 294 291 290 290 289 289 289 289 289 291 291 291 291 291
307 307 307 309 311 313 314 315 315 314 313 312 311 310 309 308 307 306 305 304 302 299 294 290 290 289 289 289 288 289 290 291 291 291 291 291 291 291
305 305 306 307 308 310 310 312 312 311 310 309 308 308 307 306 305 304 304 301 297 291 290 289 289 288 288 288 290 291 291 291 291 291 291 291 290 290
304 305 305 306 307 307 307 307 307 307 307 306 306 305 304 304 302 297 292 290 289 289 288 288 288 288 289 290 291 291 291 291 291 291 291 290 290 290
304 304 304 305 305 305 305 305 305 305 305 305 304 302 300 294 291 290 290 289 288 288 288 288 288 289 290 291 291 291 291 291 291 290 290 290 290 290
304 303 303 303 303 303 303 303 302 301 301 300 296 291 290 289 289 288 288 288 287 287 288 288 289 290 291 291 291 291 291 291 290 290 290 290 290 290
302 302 302 301 302 302 301 299 294 291 290 289 289 289 288 289 288 288 288 288 287 287 288 289 290 291 290 291 291 291 291 290 290 290 290 290 290 290
301 300 300 300 298 296 294 290 288 288 288 288 287 288 288 288 288 288 287 287 287 287 287 288 290 290 290 290 290 291 290 290 290 290 290 289 289 289
299 299 298 296 291 289 287 287 288 287 287 287 287 287 287 287 287 287 287 287 287 287 288 289 289 290 290 290 290 290 290 289 289 289 289 288 288 288
298 296 291 289 288 287 287 287 287 287 287 286 286 287 287 287 287 287 287 287 287 288 289 289 289 289 289 289 289 289 289 288 287 287 287 286 286 286
292 289 288 288 288 287 287 287 287 287 287 287 287 287 287 287 287 287 287 287 287 287 288 288 288 288 288 288 287 287 286 287 286 285 285 286 286 286
289 288 288 287 287 287 287 288 287 287 287 287 287 287 287 287 287 287 287 287 287 286 286 286 286 286 286 286 286 287 286 286 285 285 285 285 287 287
289 288 288 287 287 287 287 287 288 287 286 287 287 287 287 287 287 288 287 287 287 286 286 286 286 285 285 286 285 286 286 286 285 286 286 286 286 287
292 290 289 288 287 287 287 287 287 287 287 287 287 287 287 287 287 288 287 287 286 287 286 286 286 285 285 285 284 285 285 285 285 285 286 286 286 286
295 293 293 288 288 288 288 287 287 287 287 287 287 287 287 287 287 287 287 286 286 287 287 287 285 284 285 284 285 287 286 285 285 285 285 286 286 286
296 296 296 288 288 288 288 288 287 287 287 287 287 287 287 287 287 287 287 286 286 287 287 286 284 284 284 284 285 285 286 286 285 285 285 284 284 284
296 296 296 296 290 289 288 288 288 288 288 288 287 287 286 286 287 286 286 286 286 286 286 286 285 284 284 284 284 284 285 286 286 286 286 284 284 283

GFSNE_850_thetae_108.txt.gz
Theta_e
325 324 324 322 323 323 323 324 324 325 328 326 325 325 323 323 321 317 315 315 315 314 313 314 314 312 312 314 313 314 312 311 309 307 307 307 307 305
322 322 322 324 324 324 325 323 321 322 325 325 322 322 322 322 319 316 315 314 313 312 311 311 311 310 311 312 312 310 309 308 307 306 306 305 304 303
323 325 325 325 325 324 319 320 320 324 324 322 323 321 318 320 318 316 314 312 311 311 311 310 309 309 309 308 308 308 307 307 305 305 304 303 300 294
325 324 320 316 314 312 311 312 313 319 318 319 322 320 319 318 315 314 312 310 309 309 309 308 307 307 307 307 306 306 305 304 304 303 299 292 290 290
314 312 311 311 311 311 312 312 315 314 322 319 319 318 317 317 315 313 312 310 309 308 307 306 306 306 306 305 304 304 303 302 299 292 290 290 290 290
311 311 311 311 311 311 312 313 312 317 319 317 317 317 316 314 313 312 310 308 308 307 305 305 304 304 304 303 302 300 293 291 290 290 290 290 292 291
309 309 309 309 309 310 311 312 315 315 316 316 315 315 314 314 313 311 308 307 306 305 304 303 302 301 298 294 291 290 290 289 289 289 291 292 291 291
306 305 305 305 306 307 309 311 313 313 314 314 314 314 314 312 310 309 307 306 304 304 303 302 299 292 290 289 289 289 289 289 289 291 291 291 291 291
305 305 304 304 305 305 307 308 310 311 312 311 311 310 309 308 308 307 306 305 304 303 298 292 290 289 289 288 288 289 290 291 291 291 291 291 291 291
305 305 304 304 304 305 306 307 308 308 309 309 308 307 306 306 305 304 303 302 301 298 293 289 289 288 288 289 289 290 291 291 291 291 291 291 291 290
305 304 304 304 304 304 304 304 305 305 305 305 305 305 305 304 303 302 300 295 292 290 289 288 288 288 288 289 290 291 291 291 291 291 291 291 290 290
304 303 303 303 303 303 303 302 302 302 302 302 302 302 302 300 295 291 290 289 289 288 288 287 288 288 289 290 291 291 291 291 291 291 291 290 290 290
303 302 302 302 302 302 302 300 298 297 296 294 293 291 290 289 289 288 288 288 287 287 288 287 288 289 290 291 291 291 291 291 291 290 290 290 290 290
302 301 300 300 300 300 299 297 296 292 289 288 288 288 288 288 288 288 287 287 287 287 286 288 289 290 290 290 290 290 290 290 290 290 290 290 290 289
301 301 299 299 299 295 292 288 288 288 288 287 287 287 287 287 287 287 287 287 287 287 286 287 288 289 289 290 290 290 290 290 290 290 289 289 289 288
301 299 298 297 294 289 288 287 287 287 287 287 287 286 287 287 287 286 286 286 286 286 287 288 289 289 289 290 290 290 289 289 288 288 288 288 287 286
298 297 296 292 290 288 288 287 287 287 287 287 287 287 287 287 286 286 286 286 286 287 287 288 289 289 289 289 289 288 287 287 287 286 287 287 286 286
297 297 294 292 288 288 287 287 287 287 287 287 287 287 287 287 286 286 286 286 286 286 287 287 287 287 288 288 288 288 288 287 286 286 286 287 288 287
297 297 292 291 292 288 287 287 287 286 286 287 287 287 286 286 286 286 286 286 286 286 287 287 287 287 287 288 288 288 287 286 286 286 286 286 288 288
297 297 295 292 290 288 287 286 287 286 286 287 287 287 286 286 286 286 286 286 286 286 287 288 287 287 287 286 287 288 287 286 286 286 286 286 287 287
296 296 296 295 296 289 287 287 287 286 286 286 287 287 286 286 286 286 286 286 286 287 287 288 287 285 286 287 288 289 286 285 285 285 286 286 287 287
296 295 295 295 295 294 288 287 287 287 287 287 287 287 286 286 286 286 286 286 286 286 287 286 285 285 286 286 288 287 287 286 284 284 285 286 286 286
295 295 295 295 295 295 295 288 288 288 288 288 288 287 286 286 286 286 286 286 286 285 286 286 285 284 285 285 286 287 286 286 285 285 285 285 285 286

GFSNE_850_thetae_111.txt.gz
Theta_e
324 325 325 325 324 323 323 323 323 323 321 321 324 325 325 325 324 322 322 318 316 314 315 314 314 316 314 311 310 313 313 313 312 311 309 307 307 306
322 322 322 322 323 322 324 323 323 323 323 324 323 323 323 322 321 322 320 317 315 313 313 312 311 311 311 311 312 312 311 310 308 308 307 306 305 304
322 323 323 323 323 324 325 324 322 324 324 322 321 322 321 320 320 318 318 315 314 312 311 311 311 310 309 309 310 309 308 308 307 307 306 305 303 302
323 324 323 322 318 314 313 312 311 312 316 316 320 320 319 318 318 318 316 315 313 311 310 309 309 308 307 307 307 307 307 307 306 305 304 303 296 291
315 312 311 311 311 311 311 311 311 312 313 317 317 318 318 317 317 317 316 314 313 309 309 308 307 306 306 306 306 306 305 304 303 303 299 292 291 290
310 309 309 309 309 309 309 310 311 314 316 312 314 317 316 316 316 315 314 313 311 307 307 307 306 305 304 304 304 304 303 301 295 292 290 290 290 291
308 307 307 307 306 306 307 308 309 310 311 314 314 312 313 315 315 313 312 310 308 305 306 305 304 303 302 301 301 299 295 291 290 289 289 290 291 292
308 307 306 305 304 304 304 305 306 308 311 312 312 313 314 313 313 312 311 309 306 306 305 304 303 301 300 294 291 290 290 289 289 289 289 291 291 291
306 306 305 304 304 304 304 304 305 306 308 310 310 311 311 311 310 308 308 308 307 305 304 302 300 298 292 290 289 289 289 288 289 290 291 291 291 291
306 305 305 304 304 304 304 304 305 306 307 308 308 308 308 308 306 306 306 305 304 303 302 299 295 291 290 289 288 288 288 290 291 291 291 291 291 291
306 305 304 304 303 303 303 303 304 304 304 304 305 306 306 305 305 305 304 304 302 302 299 295 290 289 288 288 288 289 290 291 291 291 291 291 291 291
305 304 304 303 302 302 302 302 302 302 302 302 302 303 303 303 302 302 301 300 296 293 290 289 288 288 288 288 289 290 291 291 291 291 291 290 290 291
304 303 301 300 301 301 301 301 300 300 299 298 297 296 296 297 296 292 291 289 289 288 288 288 287 288 288 290 290 290 291 291 291 291 290 290 290 290
303 302 301 301 301 300 300 299 298 297 296 291 289 288 288 288 288 288 287 287 287 287 287 287 288 288 288 290 290 291 291 291 291 290 290 290 291 290
302 302 301 301 300 299 298 296 290 288 287 287 287 287 287 287 287 287 287 287 287 287 287 287 287 289 289 289 290 290 290 290 290 290 290 290 290 290
301 300 300 300 299 298 297 292 288 287 286 286 286 286 286 286 286 286 286 286 286 287 287 287 287 287 288 289 289 289 290 289 290 290 289 289 289 288
300 299 299 299 298 297 293 288 287 287 286 286 286 286 286 286 286 286 286 286 286 287 287 287 287 288 289 289 289 289 289 289 288 288 288 288 287 286
299 299 298 299 297 295 292 288 287 287 286 286 286 286 286 286 286 286 286 286 286 287 287 287 287 288 288 288 288 288 288 288 287 287 288 288 288 286
299 299 298 298 297 293 293 289 287 286 286 286 286 286 286 285 285 286 286 286 287 287 286 287 287 287 287 288 288 289 289 288 288 288 287 287 288 288
298 297 297 297 297 296 294 291 287 286 286 286 286 286 286 285 285 286 286 286 287 287 286 286 287 287 287 287 287 289 288 287 287 287 287 287 287 288
297 296 296 296 296 295 295 294 289 286 286 286 286 286 286 286 286 286 286 286 286 287 287 287 287 285 285 286 288 290 288 287 287 287 286 286 287 288
296 296 295 295 295 295 294 294 293 289 287 287 287 287 286 286 286 286 286 286 286 286 287 286 285 285 286 287 288 288 288 286 285 286 287 286 286 286
295 294 294 294 294 294 294 294 293 294 290 288 288 287 287 287 286 286 286 286 286 286 286 286 285 285 285 286 286 287 287 287 286 286 286 285 285 286

GFSNE_850_thetae_114.txt.gz
Theta_e
322 322 324 325 324 324 324 322 322 323 323 323 321 322 324 324 325 324 324 322 321 318 315 314 314 315 314 315 313 311 310 312 312 313 312 309 308 307
321 322 322 323 323 323 323 324 324 324 323 323 323 322 322 318 321 321 320 320 320 318 315 313 313 313 312 311 311 310 312 312 312 311 308 308 306 306
321 322 322 323 323 323 323 323 322 320 320 317 319 320 319 319 319 318 319 319 317 316 314 313 312 311 311 310 310 310 311 310 309 307 307 306 305 305
323 322 322 319 314 312 311 311 311 311 312 312 315 316 313 316 318 317 317 317 316 314 314 312 310 310 309 308 308 307 307 307 307 307 306 305 304 302
318 312 311 310 310 309 309 309 309 309 310 314 315 315 315 315 316 317 316 316 315 314 313 311 309 308 307 307 306 306 306 306 306 305 304 303 300 292
310 309 308 308 307 307 307 306 307 307 308 311 311 312 311 313 315 315 315 314 313 312 311 309 309 307 306 306 305 305 304 304 303 302 300 295 291 290
309 308 308 307 306 306 305 305 304 305 306 307 308 309 312 313 313 312 313 312 310 311 309 308 307 305 305 304 302 303 302 301 298 293 291 290 290 290
308 308 307 306 306 304 304 304 304 304 304 306 307 309 310 311 312 312 312 311 310 310 308 307 305 304 303 302 300 297 293 291 289 290 290 289 290 292
308 308 307 306 305 304 304 304 304 304 304 305 307 308 309 309 310 310 311 309 309 308 306 305 304 302 301 300 297 291 290 289 288 288 289 289 291 291
307 307 306 305 305 304 303 303 303 303 304 304 305 306 307 307 307 307 307 306 306 305 305 303 302 301 297 292 290 289 288 288 288 289 290 291 291 292
306 306 306 305 304 304 303 303 302 303 303 303 303 304 304 305 305 305 305 304 304 303 302 301 300 298 292 289 289 288 288 288 289 290 291 291 291 291
306 305 304 303 301 300 300 300 300 301 302 302 301 301 302 302 303 303 302 302 301 300 301 299 296 291 289 288 288 288 289 289 290 290 291 291 291 291
305 304 303 301 300 300 300 299 300 300 300 300 298 296 296 296 297 298 298 298 298 296 292 289 289 288 288 289 288 288 289 290 291 291 291 291 291 291
304 303 302 301 301 300 300 299 299 299 298 297 294 289 288 287 288 288 288 288 288 288 288 288 287 288 287 288 291 289 290 291 291 291 291 291 291 291
303 303 302 301 301 300 299 298 298 296 290 288 287 287 287 286 286 287 287 287 287 287 287 287 286 287 288 288 289 290 291 291 291 291 291 291 290 290
302 302 301 300 300 299 298 297 295 290 288 287 287 286 286 286 286 286 286 286 286 286 286 286 286 286 288 289 289 290 290 290 291 290 291 290 290 290
301 301 300 299 299 298 297 296 292 288 287 286 286 286 286 286 285 285 285 285 285 285 286 286 286 286 287 287 289 289 290 290 290 290 289 289 289 288
299 299 299 298 298 297 297 295 292 288 287 286 286 286 286 285 285 285 285 285 285 285 285 285 286 287 287 288 289 289 289 289 288 288 288 289 288 288
299 299 299 298 298 297 297 295 293 290 287 286 286 286 286 286 285 285 285 285 286 285 285 286 286 287 287 288 289 289 290 289 288 289 289 289 289 287
298 298 298 297 296 296 296 295 295 293 289 287 286 286 286 286 286 286 285 285 285 286 286 286 286 286 286 286 287 289 289 289 289 288 288 288 289 289
296 296 297 296 296 294 295 294 294 294 293 289 287 286 286 286 286 286 286 286 286 286 286 287 287 285 285 286 288 289 288 288 288 288 288 288 288 290
296 296 296 295 295 294 294 294 294 294 293 293 288 288 289 288 287 286 286 286 286 286 286 286 285 285 286 286 288 288 288 287 287 287 287 287 287 287
296 295 295 295 294 294 294 294 294 294 293 293 293 290 288 287 288 287 287 286 286 286 286 286 285 285 285 286 286 286 287 287 286 286 287 287 288 289

GFSNE_850_thetae_117.txt.gz
Theta_e
325 323 323 324 324 323 323 321 322 322 322 321 320 320 319 319 317 317 319 319 321 321 321 318 315 314 313 313 314 312 312 311 314 315 314 312 309 308
321 321 322 322 323 324 324 323 323 323 324 322 322 322 321 321 320 320 320 320 319 319 317 316 316 314 313 313 312 312 311 309 311 312 312 310 308 307
320 320 321 321 322 322 321 321 320 321 321 321 319 318 317 317 317 318 317 320 317 318 317 315 314 313 312 311 311 312 311 311 311 311 310 308 308 306
321 322 321 321 316 312 311 310 310 310 310 311 311 312 311 318 315 315 314 315 316 316 316 315 314 312 310 310 310 308 308 308 308 308 307 307 306 305
321 320 313 310 309 309 308 308 308 307 307 307 308 310 312 312 312 314 315 314 315 314 315 314 313 311 309 309 307 307 306 306 307 306 306 305 304 303
312 310 309 308 308 308 307 307 307 306 305 306 306 308 309 311 312 311 314 314 314 313 312 312 312 309 308 307 307 306 306 305 305 305 304 302 301 297
309 309 309 308 308 308 307 306 305 305 304 304 305 306 307 308 309 311 313 313 312 312 311 309 309 307 306 306 305 304 304 304 304 303 302 298 292 290
309 309 308 308 307 307 306 305 304 304 304 303 304 305 306 308 309 309 310 311 309 311 310 308 307 307 305 304 303 302 301 301 301 299 296 292 290 289
308 308 307 307 306 306 305 304 304 303 303 303 304 305 306 307 307 308 309 309 309 309 309 307 307 305 304 303 302 300 299 295 291 290 289 290 289 289
308 307 307 306 306 306 305 304 303 303 303 303 303 304 304 305 305 306 306 305 305 305 306 305 305 305 303 302 300 299 293 290 289 289 288 289 288 290
308 307 306 306 305 305 304 303 303 302 302 302 302 302 303 303 304 304 304 304 304 305 304 303 303 303 302 300 296 291 289 289 288 288 288 288 290 290
307 307 306 305 304 303 301 300 299 299 299 300 301 301 301 301 301 302 302 302 302 302 302 302 301 300 298 297 292 289 288 288 288 289 290 290 290 291
307 306 305 304 302 301 301 299 299 298 298 300 300 298 297 296 296 298 299 299 299 299 299 296 297 297 294 289 289 288 288 288 288 289 290 291 291 291
306 305 304 303 302 301 301 300 299 298 298 297 295 293 292 290 288 288 288 289 290 291 292 292 290 288 288 288 288 289 288 288 289 290 290 290 291 291
303 303 302 302 302 300 300 299 298 298 296 292 288 287 287 287 287 287 287 287 287 287 287 287 287 287 287 287 287 289 289 289 290 290 290 291 291 291
300 300 301 301 300 299 299 298 298 297 293 288 287 287 286 287 286 286 286 286 286 286 286 286 286 286 286 287 288 288 289 290 290 290 290 290 291 291
300 301 300 300 299 298 298 297 297 295 291 288 287 286 286 286 286 286 286 286 286 286 285 285 286 286 286 286 288 289 289 289 290 290 290 290 290 290
299 298 298 298 298 298 298 297 297 296 292 288 287 286 286 286 286 286 286 286 286 286 285 285 285 286 286 287 287 288 288 289 289 289 289 289 289 289
298 298 298 298 298 297 297 296 296 295 293 291 288 286 286 286 286 286 286 286 286 286 285 285 286 286 286 287 288 289 289 289 288 288 289 289 289 289
298 297 297 298 297 297 296 295 295 295 294 293 291 288 286 286 286 286 286 286 286 286 286 286 286 286 286 286 286 288 288 289 289 289 289 289 289 289
297 297 296 296 297 296 296 294 295 295 294 294 294 292 287 286 286 286 286 286 286 286 286 286 286 285 285 286 288 289 288 288 289 289 289 289 290 290
298 297 296 296 296 296 295 294 293 294 294 294 294 293 292 287 289 292 291 287 286 286 286 285 285 285 285 286 287 288 288 288 288 288 289 289 289 289
296 296 295 294 294 295 294 294 294 294 294 293 293 293 293 292 289 287 287 289 288 287 286 286 285 285 285 285 286 286 286 286 286 287 288 288 288 288